GFSNW_850_thetae_000.txt.gz
Theta_e
311 313 314 315 321 320 325 320 313 322 322 316 310 311 314 316 316 317 316 316 316 317 316 317 318 318 316 315 316 316 313 310 311 314 313 313 314 314 312 309 312 310 308 313
310 312 314 314 320 323 322 319 320 320 321 310 304 314 315 315 315 315 315 316 316 315 315 316 316 316 316 316 315 315 313 310 309 309 311 311 315 315 312 307 307 314 309 312
309 311 314 314 317 321 319 318 312 319 316 314 312 314 315 316 316 315 316 315 315 314 314 313 316 316 315 316 316 315 313 310 310 310 310 310 313 314 313 312 314 313 313 313
308 310 312 314 315 320 318 317 315 316 309 313 314 314 315 317 316 315 315 315 315 314 314 314 317 315 314 314 315 314 311 314 312 311 311 311 313 313 313 312 312 315 314 312
308 309 310 314 314 318 318 317 317 316 315 314 312 309 315 317 315 315 316 315 315 315 315 315 317 316 314 314 314 313 309 309 312 311 311 311 311 311 312 312 312 311 312 312
307 308 309 313 314 316 318 318 317 318 310 308 307 309 314 314 315 315 315 315 312 311 315 316 316 316 316 314 313 310 311 305 307 308 308 307 307 308 310 311 310 310 310 309
307 308 309 312 314 315 317 318 317 315 306 303 308 314 314 313 314 314 314 315 310 315 317 317 316 314 309 309 310 312 304 303 303 306 311 313 310 310 309 309 308 308 307 306
307 308 310 312 314 315 317 318 316 314 303 308 314 314 313 314 315 315 315 316 315 317 316 305 304 303 301 303 308 308 306 305 307 313 313 309 312 310 310 309 308 308 308 310
308 308 311 313 315 316 318 317 318 315 314 309 315 314 314 306 307 310 316 316 316 316 306 302 303 304 306 310 308 305 304 299 303 308 312 313 309 307 308 310 309 310 311 310
309 310 312 314 315 316 316 315 316 316 314 314 315 314 311 313 312 307 311 315 314 314 301 304 302 306 306 308 303 301 302 304 312 312 310 307 306 307 309 312 310 310 310 310
310 311 313 314 315 315 316 316 315 316 315 315 316 315 314 314 313 305 312 311 310 305 307 304 304 296 303 306 306 305 305 302 300 304 307 307 307 309 310 310 311 310 310 308
312 313 314 314 314 315 314 315 316 315 315 314 316 316 316 315 315 314 313 312 312 312 304 303 300 301 301 304 311 305 308 306 308 310 306 307 309 310 310 309 309 308 309 306
313 314 314 315 315 315 315 315 316 315 315 316 316 315 316 315 316 316 315 314 315 314 313 307 301 303 301 311 309 304 309 311 308 309 309 311 312 311 310 310 309 307 305 303
313 314 314 315 315 316 316 317 316 316 315 314 314 314 315 315 315 314 314 315 314 314 313 312 301 307 309 307 310 310 310 310 310 309 311 311 311 310 310 307 307 306 302 299
313 313 314 315 315 315 316 316 317 316 315 311 313 313 313 313 313 313 313 313 315 316 313 309 306 309 307 306 305 307 311 309 308 311 311 311 310 310 308 307 304 302 297 297
313 313 313 314 314 315 315 315 315 315 315 314 306 311 312 312 312 312 313 313 313 314 314 312 312 313 311 306 310 311 311 311 311 311 310 309 309 306 304 302 297 297 297 296
313 313 314 314 314 314 314 313 313 313 314 313 309 309 310 310 310 311 311 312 312 312 313 312 311 311 311 304 311 310 310 311 309 307 307 307 304 301 298 297 296 294 295 294
312 313 313 314 314 314 314 314 312 311 312 311 305 306 308 308 309 309 309 310 310 311 311 310 308 309 310 308 309 309 308 306 306 306 305 305 301 299 296 296 296 294 293 292
312 313 313 313 312 312 312 313 313 312 311 311 306 306 308 308 307 308 307 307 304 306 304 305 306 303 308 307 303 303 304 304 304 303 301 299 297 297 297 297 295 294 292 292
311 311 310 308 308 309 310 309 310 311 308 306 305 306 305 308 307 305 307 303 302 305 302 303 302 304 304 302 303 304 304 304 302 300 297 298 297 297 297 296 295 294 293 292
307 308 307 306 306 308 306 305 305 304 304 303 303 305 304 305 304 303 303 301 300 298 296 302 301 300 300 300 300 300 298 298 298 298 297 296 296 296 295 295 295 294 293 293
307 307 305 305 304 304 305 302 300 301 301 300 301 302 303 303 304 302 299 300 298 300 296 298 296 295 299 299 298 298 297 298 297 296 294 293 292 293 294 294 295 294 294 293
305 304 304 303 301 303 304 301 302 301 300 300 300 300 301 301 302 299 297 296 295 295 294 295 294 297 294 294 294 294 294 293 292 292 292 292 293 293 292 292 292 292 293 293
303 302 302 299 299 300 299 298 293 299 300 300 301 299 298 297 296 295 293 291 291 297 294 292 290 295 294 294 295 294 294 293 292 293 293 292 292 292 292 293 293 293 293 293
299 298 297 297 296 297 299 299 300 300 301 301 299 297 297 293 291 292 289 294 294 294 291 287 295 295 295 295 294 293 292 292 293 293 292 292 292 292 292 292 293 293 293 293
297 296 291 296 297 296 298 299 300 300 300 298 297 290 290 290 287 288 292 290 290 289 287 295 295 295 295 293 292 292 293 293 293 292 292 292 292 292 292 292 292 292 292 292
294 294 294 296 295 296 297 298 298 299 299 294 293 288 289 288 284 287 288 286 285 294 293 294 295 293 292 291 291 292 293 293 293 293 292 292 292 292 292 292 291 291 291 292

GFSNW_850_thetae_006.txt.gz
Theta_e
312 314 316 316 319 321 319 318 322 319 318 322 317 321 319 317 318 318 319 320 320 321 320 321 321 320 319 316 317 318 317 318 316 316 317 317 318 319 318 317 317 318 319 318
311 314 314 319 317 321 322 321 321 321 320 327 324 318 318 317 319 318 319 320 319 319 320 321 320 319 317 317 318 318 317 318 315 317 318 318 319 318 317 317 317 319 320 319
310 312 314 319 321 322 318 320 329 318 318 316 320 320 320 319 316 317 318 318 318 320 320 320 321 320 318 316 317 313 315 318 316 314 314 315 314 314 315 316 319 318 318 317
308 311 314 315 319 318 317 319 321 318 325 320 320 320 319 319 319 317 317 318 319 320 321 319 320 319 318 316 315 317 318 316 317 316 315 315 315 315 315 315 316 318 317 316
307 309 311 314 316 318 317 321 320 316 316 317 319 318 320 319 317 318 318 319 318 317 317 315 317 316 316 314 317 317 316 317 315 315 314 314 315 315 315 315 316 316 316 316
307 308 310 313 315 317 317 317 316 319 311 316 322 320 319 319 318 316 318 318 318 318 317 316 316 316 316 316 316 317 318 318 317 320 313 314 318 316 315 315 315 315 315 314
307 308 309 310 314 316 317 317 317 318 321 318 319 317 318 318 317 319 316 317 319 315 315 315 314 313 313 315 315 315 313 316 314 318 316 321 315 313 313 314 314 314 313 313
307 307 308 309 313 315 315 317 315 316 314 317 315 317 317 316 316 316 316 316 314 316 317 318 318 315 314 313 311 313 313 316 315 316 315 315 314 313 313 313 314 313 314 313
307 307 308 309 312 315 316 317 315 314 315 320 315 317 317 319 319 318 316 314 315 315 316 318 320 319 315 315 314 309 310 311 317 314 316 317 315 312 310 312 315 313 312 312
307 307 307 309 312 315 317 317 316 315 313 313 314 318 318 316 317 320 317 316 315 315 315 317 322 319 313 316 316 315 312 311 314 314 316 315 313 310 310 316 317 312 310 309
308 308 308 309 312 314 317 316 316 315 314 314 314 314 314 314 317 321 315 317 316 315 317 314 317 315 317 315 314 314 315 317 315 313 313 315 310 311 314 314 311 309 308 308
309 308 309 309 311 313 315 316 315 315 315 314 314 314 314 314 314 315 314 317 316 317 317 311 310 311 307 317 317 312 315 314 314 313 316 313 312 311 311 310 309 309 308 306
310 309 309 311 312 313 314 315 316 315 315 315 316 315 314 314 314 314 317 313 314 314 314 313 311 312 314 313 315 317 314 312 314 313 313 313 313 312 311 310 308 307 305 303
310 310 310 311 313 314 314 315 315 315 315 315 315 315 316 316 315 315 315 315 313 313 312 310 308 314 313 312 317 315 314 313 313 314 313 313 312 311 309 308 307 304 303 301
311 311 311 313 314 315 315 315 315 315 315 316 314 314 315 315 315 315 315 314 314 313 310 307 312 312 312 310 309 314 313 314 314 314 312 312 310 308 306 307 304 302 300 298
311 312 312 313 314 315 316 316 316 316 315 316 318 313 313 314 314 314 314 314 314 314 313 312 313 313 314 310 311 311 312 312 312 312 309 308 307 307 304 302 300 299 298 298
311 312 313 313 314 315 315 316 314 316 317 316 314 313 311 312 312 312 312 313 314 314 313 312 313 314 312 308 311 311 311 310 309 308 307 305 304 304 301 299 298 298 298 297
311 311 312 313 313 313 314 314 313 314 315 315 309 309 308 309 310 310 310 310 311 311 312 310 310 309 310 311 311 308 305 305 305 305 305 305 302 300 299 299 298 297 296 295
310 313 312 313 313 313 313 314 314 313 313 311 307 309 311 307 305 306 307 308 309 307 306 306 308 307 310 310 308 304 305 305 303 302 301 300 299 298 297 296 295 294 294 294
312 311 312 311 312 312 313 313 312 312 312 311 308 308 312 308 304 304 306 304 307 309 304 302 303 306 303 302 303 304 303 302 301 300 299 298 297 295 294 294 294 294 293 292
309 310 310 308 309 311 312 309 307 305 304 305 304 305 305 305 308 306 304 303 303 309 306 307 307 308 305 302 302 301 301 300 299 297 295 294 293 293 294 294 293 291 291 292
305 305 305 305 305 304 304 303 300 302 305 301 302 303 304 304 306 303 299 304 302 308 300 303 306 305 301 301 300 299 298 297 294 292 293 292 292 292 292 292 291 291 292 291
301 302 301 300 300 304 306 307 305 304 301 301 301 301 302 302 303 299 302 304 305 298 301 304 305 301 300 300 299 298 296 294 292 292 291 291 292 292 292 292 292 292 291 291
300 300 303 303 304 304 303 304 305 299 301 300 302 298 301 298 298 299 304 298 299 302 302 304 302 299 298 296 296 295 294 293 292 291 291 292 292 292 292 292 292 292 291 291
300 301 303 302 297 298 298 298 299 300 300 301 300 298 300 298 298 297 298 299 301 301 303 301 299 296 295 295 294 294 293 291 291 291 291 292 293 292 292 292 291 291 291 291
297 296 297 296 298 298 299 299 299 300 300 300 299 299 301 299 299 299 301 300 301 301 299 298 296 294 295 295 295 294 292 291 290 291 292 293 293 293 293 292 291 290 290 291
295 295 295 296 297 299 298 299 300 300 300 300 297 300 300 294 298 299 297 298 298 297 295 294 294 294 295 295 293 292 290 290 291 292 293 293 293 293 292 292 291 290 290 290

GFSNW_850_thetae_009.txt.gz
Theta_e
314 314 317 319 316 315 316 320 322 315 316 321 325 325 321 319 320 321 321 322 322 323 322 323 323 322 322 319 319 320 318 320 319 318 319 320 320 321 320 320 318 319 320 319
312 314 318 316 321 317 323 321 322 317 320 329 329 322 321 321 321 321 322 322 322 322 323 323 322 322 319 319 319 321 319 321 320 319 321 320 319 319 318 317 317 318 324 320
311 314 316 318 320 322 322 322 328 321 322 322 323 323 322 321 320 320 321 321 321 322 322 322 323 322 320 319 319 315 317 319 318 318 317 316 316 316 316 317 319 319 319 318
309 312 314 319 320 322 319 323 325 323 326 325 323 322 322 322 321 320 320 321 322 322 322 322 322 320 320 317 316 318 318 318 318 317 316 315 315 316 316 316 316 318 318 318
308 310 313 315 318 317 321 321 323 321 323 322 323 319 322 321 320 320 320 321 321 320 320 317 318 317 316 317 318 318 318 320 318 317 316 315 315 315 315 316 316 316 317 317
308 309 310 314 316 317 322 318 320 323 318 323 324 323 322 321 320 319 319 320 319 320 318 318 318 318 317 317 318 319 319 319 318 320 318 317 320 318 315 316 315 316 317 316
308 308 309 312 315 316 319 320 321 322 324 324 323 320 320 321 320 320 319 318 320 319 317 317 317 317 317 318 318 318 320 318 318 320 317 323 318 316 315 315 315 315 315 315
308 307 308 310 314 315 316 317 321 320 326 322 320 320 320 319 319 319 319 319 318 318 319 320 318 316 313 316 315 316 317 319 318 318 318 316 316 315 315 315 315 315 316 316
308 307 308 309 312 315 316 316 315 320 317 324 320 320 320 322 322 321 319 317 318 320 320 319 320 320 317 318 316 313 315 317 320 318 317 319 317 315 313 314 317 315 315 313
307 307 307 309 311 315 316 317 315 319 321 319 319 321 322 320 320 322 320 319 319 319 319 321 323 321 316 317 317 314 315 314 319 316 318 316 315 313 313 316 318 315 312 311
307 307 307 308 310 314 317 317 316 319 319 317 317 318 319 319 319 324 320 320 320 321 317 319 321 319 319 318 315 316 317 318 315 315 317 316 313 313 316 315 313 313 311 310
308 308 308 308 310 312 315 319 316 315 320 320 315 315 317 318 319 319 319 319 320 319 322 319 318 314 315 318 318 315 317 316 317 317 317 314 313 314 314 313 312 311 309 308
309 309 308 309 310 312 314 316 315 315 316 318 318 318 314 314 315 318 320 319 318 319 319 317 315 313 317 315 318 319 315 314 317 316 314 313 313 313 313 312 310 308 307 307
310 310 309 310 310 311 313 315 316 317 317 317 320 317 315 314 314 314 318 318 316 318 317 313 310 316 316 317 318 317 316 315 316 317 315 313 313 313 311 309 308 307 306 303
311 311 310 311 312 313 314 314 315 315 319 319 319 315 315 316 315 315 315 315 316 317 313 309 314 317 317 316 313 317 314 316 318 318 314 314 313 311 309 309 308 305 302 301
311 311 312 312 313 314 315 318 315 315 315 316 320 316 314 315 316 318 318 317 318 318 317 313 315 316 316 312 315 313 313 313 313 314 313 312 310 308 308 306 303 302 300 300
310 311 312 313 313 315 318 318 317 316 315 316 316 318 311 313 315 316 317 316 317 317 316 315 315 316 315 315 315 312 312 312 312 311 309 307 306 307 304 302 301 300 299 297
310 311 311 312 313 314 315 314 313 316 317 316 315 314 312 310 313 313 312 313 313 315 316 312 313 314 314 314 313 312 312 310 308 307 307 306 305 304 302 301 299 297 296 296
310 311 311 312 313 313 313 314 314 314 315 316 308 311 312 310 308 308 308 309 311 310 310 310 312 312 313 313 312 312 309 308 306 306 305 304 302 301 299 297 296 296 295 294
311 312 313 312 312 313 312 313 313 313 313 312 309 311 311 311 306 306 306 306 310 309 308 304 304 307 309 310 309 309 307 307 306 304 303 301 299 297 296 296 296 295 294 293
308 310 311 309 311 313 313 312 310 309 307 307 308 309 310 307 309 307 305 306 305 310 308 308 310 309 309 308 305 305 305 304 303 302 299 296 296 295 295 295 295 294 293 293
306 306 306 307 306 307 310 305 302 304 309 303 303 304 306 305 306 304 300 304 303 311 305 307 308 309 306 305 305 304 303 301 299 296 295 295 295 295 295 294 294 293 292 292
303 303 302 301 300 303 306 307 306 305 301 301 301 301 303 303 303 300 302 306 309 302 304 306 308 306 304 305 303 302 300 297 295 295 294 294 294 292 292 292 292 292 292 291
300 300 303 303 305 304 304 306 304 300 302 302 302 300 301 300 301 300 307 302 303 305 305 307 306 304 303 303 302 300 298 295 293 293 292 291 291 291 292 292 292 292 292 291
300 300 304 302 298 298 299 299 299 299 300 302 302 301 303 301 302 302 301 302 304 305 306 306 302 302 301 299 297 296 295 294 294 293 292 291 291 292 293 292 292 292 292 291
298 298 300 298 300 299 299 299 299 300 301 302 302 302 304 303 303 302 304 305 304 305 303 301 299 297 297 296 296 295 295 294 292 291 290 291 292 292 292 293 292 292 291 291
297 297 297 298 299 300 299 299 300 300 300 302 301 303 304 298 302 303 302 303 303 300 299 298 297 296 296 294 294 294 294 293 291 291 291 292 292 292 292 292 292 292 291 291

GFSNW_850_thetae_012.txt.gz
Theta_e
314 314 316 319 315 313 318 320 321 319 315 321 321 327 323 319 320 322 323 323 322 323 323 323 323 323 323 319 319 320 317 320 325 319 319 319 319 320 320 326 321 325 323 319
313 314 317 320 315 314 318 322 324 315 315 329 334 324 322 321 321 321 322 323 323 323 324 324 323 323 320 319 320 321 319 323 326 321 322 320 318 319 318 319 321 319 323 320
311 314 318 319 315 318 324 325 327 319 321 326 325 325 323 323 322 322 322 323 322 323 323 323 323 323 321 319 318 314 318 319 319 321 318 317 316 316 316 317 323 322 321 318
310 313 316 318 320 319 322 326 324 319 325 324 324 323 322 323 322 321 321 322 322 323 323 323 323 322 319 318 315 318 319 320 319 317 316 316 316 316 316 316 317 318 318 316
308 310 314 318 319 321 320 326 324 323 324 322 323 320 323 323 322 322 321 322 322 322 323 320 321 319 318 319 318 319 319 322 320 319 317 316 316 315 315 316 316 316 317 317
307 309 312 315 317 318 323 322 322 323 322 324 326 325 323 322 322 321 321 321 322 322 321 320 319 319 318 317 320 319 321 323 321 322 317 318 323 320 316 316 316 316 318 317
307 308 310 314 315 318 324 323 323 325 327 326 324 323 322 322 321 321 320 320 322 320 318 318 318 318 318 319 318 319 320 320 319 320 318 323 318 316 316 316 316 315 315 316
308 308 309 311 314 315 316 318 325 323 321 325 323 322 321 321 320 320 321 320 319 318 319 322 317 317 314 317 317 317 319 320 316 321 318 316 317 316 315 315 315 315 317 316
308 308 308 309 313 315 316 316 320 324 321 327 321 321 321 324 324 322 320 320 320 319 322 321 321 324 319 319 317 315 317 320 322 316 318 318 318 316 314 314 317 316 315 314
308 308 307 309 311 315 316 316 315 322 323 322 321 323 324 321 322 323 320 320 321 321 320 317 324 324 317 320 319 315 314 316 317 318 316 317 315 314 314 316 318 315 314 312
308 308 307 308 310 314 316 318 315 322 321 320 321 321 322 321 321 326 321 322 321 324 316 319 324 320 321 320 318 316 315 318 314 316 317 317 314 314 315 317 315 314 312 311
308 307 307 308 309 312 316 322 316 316 322 321 319 320 320 320 320 321 320 320 322 322 322 322 321 314 315 319 322 315 319 320 321 318 318 316 315 314 314 314 314 312 310 309
308 308 308 308 309 311 315 322 315 318 319 320 316 318 316 318 319 321 321 321 319 319 322 317 314 311 318 315 320 318 315 314 321 319 316 315 314 314 314 313 312 310 308 307
309 309 308 308 309 310 313 319 315 321 319 318 321 319 317 314 315 317 320 320 319 321 320 311 309 312 318 319 318 320 317 316 317 317 316 315 315 314 312 310 310 308 307 305
310 310 309 309 309 310 312 314 315 317 321 318 322 318 318 315 314 318 317 318 317 319 315 308 311 318 321 318 316 319 315 315 318 318 316 316 315 311 310 309 309 308 304 303
311 311 311 310 311 312 313 319 314 315 317 317 317 319 317 316 316 319 319 318 319 319 318 313 317 318 318 315 316 314 313 313 314 314 315 314 312 309 309 308 306 303 302 301
311 311 312 312 312 314 318 317 319 315 315 316 315 319 314 315 318 319 319 319 319 319 319 317 316 317 317 310 314 313 312 313 313 313 311 310 308 308 306 304 303 301 300 298
310 310 311 311 312 314 315 316 314 315 318 317 316 315 314 313 316 316 315 316 316 316 316 314 314 315 314 314 314 313 313 313 312 310 309 309 307 305 305 302 300 298 297 297
310 310 311 311 311 312 314 315 313 315 317 317 311 311 312 312 310 311 310 311 310 312 311 312 313 313 313 314 313 313 313 311 309 308 307 307 306 303 301 299 297 297 297 295
311 311 312 312 313 312 311 313 313 314 314 313 309 313 314 312 308 307 308 307 310 310 309 307 306 310 311 312 312 312 311 310 308 308 306 304 302 300 298 297 297 296 295 293
311 311 311 310 312 313 313 312 312 311 309 310 310 311 310 310 309 308 307 306 307 310 309 309 309 309 309 309 310 309 309 308 308 306 304 300 298 297 296 296 296 294 293 293
308 308 308 308 308 306 309 306 305 306 312 306 305 308 308 307 308 307 303 306 303 310 306 306 309 310 310 309 307 306 306 305 303 300 297 296 296 296 296 294 292 292 292 292
306 305 305 303 300 303 306 307 306 306 302 302 302 302 303 304 305 301 302 305 307 303 307 307 309 307 306 307 306 305 303 301 298 296 296 295 294 292 291 290 291 292 292 292
302 300 303 302 304 303 303 303 302 300 302 301 302 300 302 301 301 300 306 303 304 307 308 307 309 305 305 305 304 302 299 298 296 294 293 294 293 291 290 290 292 292 292 292
300 300 304 302 298 298 299 299 299 300 300 301 301 301 301 301 302 301 303 303 306 306 308 305 303 304 303 302 301 300 298 296 294 294 293 292 290 290 291 291 292 292 292 292
299 299 301 299 300 299 299 299 299 300 300 300 301 301 303 304 303 304 305 306 306 307 305 302 299 298 298 298 297 296 295 295 295 293 292 291 291 291 291 292 292 292 292 291
299 299 299 299 300 300 299 300 300 300 301 301 301 304 302 300 303 304 303 305 304 302 300 299 298 297 296 296 295 294 294 294 294 293 292 292 291 291 292 292 292 293 293 293

GFSNW_850_thetae_015.txt.gz
Theta_e
314 315 315 317 314 313 314 321 319 323 316 318 323 322 325 319 320 321 322 323 322 322 322 323 323 323 320 319 320 318 316 317 315 319 317 318 318 319 319 313 318 313 313 314
313 314 316 318 314 313 317 321 323 319 316 316 316 323 322 321 320 321 321 322 322 322 323 322 323 322 319 319 317 318 317 317 316 320 320 318 317 317 318 318 311 314 308 312
312 314 317 319 313 314 319 325 317 319 321 326 326 325 322 322 322 322 322 322 322 322 322 322 323 321 320 317 315 314 318 318 315 316 316 314 315 315 314 316 312 314 314 316
311 313 317 319 314 315 321 324 322 317 315 319 322 324 322 322 322 321 322 321 322 322 321 322 322 320 319 318 315 318 316 318 317 316 315 315 315 314 314 314 314 313 313 316
309 311 315 318 316 315 320 324 325 316 317 317 322 320 322 322 322 321 321 321 321 321 321 320 321 319 318 319 317 318 318 316 316 316 316 315 315 314 314 313 314 314 315 315
308 310 313 317 319 319 321 323 321 325 324 320 321 322 323 322 321 321 321 320 319 316 319 319 318 318 318 319 317 318 318 311 310 315 313 313 311 316 315 315 315 314 313 315
307 309 311 315 317 318 324 322 323 324 316 321 322 323 322 322 321 320 320 320 317 318 317 317 318 317 316 317 317 318 313 312 308 307 306 308 317 314 314 314 314 313 315 313
307 308 309 313 315 318 320 319 325 322 310 324 323 322 322 321 321 321 320 319 318 318 319 310 309 308 306 311 315 316 317 309 305 310 310 311 316 315 314 314 313 315 314 313
308 307 308 310 314 315 315 317 324 323 320 317 324 321 320 318 319 319 320 319 319 320 314 305 309 312 312 314 315 312 314 308 307 305 306 305 312 314 314 313 310 315 314 312
308 308 308 309 313 315 315 316 317 322 322 321 322 321 320 322 321 317 320 320 320 321 307 312 310 313 315 314 313 308 306 306 305 312 302 308 312 314 313 312 310 314 313 311
308 308 308 308 310 315 317 315 319 321 321 320 321 322 322 321 322 313 320 315 317 311 311 307 308 308 309 313 314 310 307 306 310 312 310 309 313 313 310 311 314 314 311 310
308 308 308 308 309 313 317 316 316 319 319 318 320 321 321 322 322 321 319 315 321 319 310 307 309 310 311 309 310 313 313 311 310 309 308 310 314 314 313 314 314 312 311 309
308 308 308 308 308 312 317 319 316 317 317 316 316 318 319 319 322 321 320 321 320 320 319 314 312 307 310 307 310 314 313 314 309 312 314 315 315 314 314 313 313 311 309 306
308 308 308 308 308 310 313 315 316 318 317 316 320 318 316 316 320 321 320 318 320 320 320 310 308 305 314 307 309 308 311 314 313 310 314 314 314 314 313 311 310 310 307 307
309 309 308 308 308 309 311 313 316 319 319 314 321 318 319 316 314 317 318 319 319 320 316 306 306 311 311 312 307 307 315 312 310 309 314 314 313 312 311 310 309 308 306 303
310 310 310 309 309 310 312 314 313 315 320 317 308 318 317 316 315 319 317 318 318 318 317 312 315 317 314 308 307 313 315 315 314 313 314 314 312 312 310 309 308 304 303 301
311 311 311 310 310 311 316 316 318 314 316 316 312 315 315 316 318 319 319 319 319 319 319 316 315 315 317 305 311 312 313 312 313 313 313 311 310 309 308 305 304 302 300 297
310 311 311 311 312 313 315 316 315 315 316 316 309 311 313 316 317 317 316 317 318 317 316 316 314 315 314 308 312 314 314 313 313 312 312 311 309 307 305 303 301 298 297 297
310 310 310 311 311 312 313 315 313 315 316 315 311 307 308 313 312 312 312 313 307 312 310 312 312 306 311 311 313 313 313 312 311 310 308 307 306 305 302 298 297 297 297 296
310 310 310 312 311 311 313 313 313 314 315 314 311 312 308 311 309 308 308 308 305 308 306 309 304 307 310 311 312 311 312 311 310 308 307 306 304 300 298 297 297 296 296 295
311 311 311 312 312 312 312 311 310 310 308 311 311 312 308 309 305 305 307 304 304 308 304 307 306 306 307 309 309 310 310 309 308 307 305 303 300 297 297 296 296 295 292 291
309 310 309 311 310 309 308 306 306 305 308 306 308 308 308 309 309 305 304 305 303 307 305 305 306 303 308 308 307 307 308 306 304 302 298 297 297 296 295 293 291 290 291 292
307 306 306 305 301 304 306 307 305 305 302 303 304 303 305 306 306 303 302 306 306 304 306 305 302 306 307 306 306 305 302 299 297 296 296 296 295 293 291 290 290 290 291 292
303 301 302 302 303 301 300 301 301 300 300 301 302 301 303 302 302 300 304 301 302 305 304 300 303 305 306 305 305 304 300 298 298 296 294 294 293 291 290 290 291 291 291 291
300 300 302 301 298 298 298 299 299 300 300 300 301 300 301 300 300 300 300 302 304 304 305 301 301 302 303 303 302 301 300 299 298 295 294 293 291 290 291 291 291 291 291 291
299 299 299 299 300 299 299 299 299 300 300 300 301 300 303 301 301 302 304 304 304 303 300 300 300 300 301 302 300 299 297 296 295 294 294 292 291 291 291 291 291 291 293 292
299 298 298 299 299 299 299 299 299 300 301 300 300 302 300 299 301 302 301 302 301 301 299 299 299 297 296 295 294 294 295 295 295 294 292 291 291 291 291 291 291 292 293 294

GFSNW_850_thetae_018.txt.gz
Theta_e
314 315 314 313 313 314 314 318 315 321 320 312 317 319 322 319 319 320 320 321 322 320 321 322 321 321 319 319 319 316 315 314 313 319 316 317 317 318 315 312 316 311 310 313
314 315 315 314 313 314 315 320 323 321 316 310 310 318 320 320 319 319 320 321 321 321 321 322 322 320 318 315 316 318 315 314 314 318 317 315 316 316 317 313 308 313 307 309
313 316 316 316 313 313 316 323 315 319 320 322 318 323 320 321 321 321 321 320 320 320 321 320 321 320 319 314 313 315 317 316 314 316 316 313 314 314 315 314 310 312 311 313
313 316 317 317 312 314 320 324 317 315 312 314 319 321 320 321 321 320 321 320 320 320 321 321 320 319 318 316 314 316 314 316 316 314 313 314 313 313 313 313 312 313 312 313
312 315 317 318 313 314 319 323 323 315 313 314 319 318 320 320 320 320 320 320 320 319 319 318 319 317 316 316 315 317 315 313 313 314 314 314 314 314 314 313 313 313 313 315
310 313 317 318 314 314 317 322 323 317 319 313 316 318 319 320 320 320 320 318 316 315 318 316 317 317 317 317 315 317 314 309 307 310 310 312 309 314 314 314 312 313 312 312
309 311 315 317 317 314 320 323 324 322 313 316 316 321 321 320 319 319 319 318 316 318 317 317 317 315 315 316 316 315 310 309 302 304 302 305 314 313 313 313 314 312 312 310
308 310 314 316 317 319 323 322 325 322 308 319 321 321 319 319 319 319 319 318 318 316 312 306 308 306 308 309 313 315 311 303 304 302 307 306 314 313 313 312 312 312 312 311
307 309 311 315 316 319 317 319 323 321 317 315 322 319 319 316 316 315 319 317 319 318 306 303 308 308 308 313 315 311 310 303 303 306 302 302 306 313 313 312 310 313 312 311
307 308 309 313 314 315 315 318 323 320 321 321 322 318 319 320 317 314 319 319 320 317 299 307 304 312 311 312 310 307 305 301 303 297 299 305 306 312 313 311 308 314 313 312
308 307 308 310 314 314 315 316 318 320 321 320 321 322 321 320 319 312 318 314 315 307 305 303 308 303 308 310 311 309 307 306 305 304 300 308 309 311 310 309 314 314 313 312
308 308 308 309 311 314 316 316 319 319 318 319 320 321 321 321 320 319 318 314 316 315 307 305 309 304 308 306 311 310 311 307 307 308 309 308 312 313 313 313 314 314 312 310
308 308 308 308 310 312 315 315 317 317 317 317 318 318 320 321 322 320 318 319 318 317 314 310 304 304 305 308 309 312 310 311 308 310 311 311 313 313 313 313 314 312 311 307
308 308 308 308 309 311 315 316 316 316 315 314 318 318 316 320 322 321 320 319 319 319 317 309 304 303 309 303 306 306 309 312 312 308 311 314 314 314 314 313 312 310 309 308
308 308 308 308 308 310 311 313 315 317 316 313 320 318 318 316 318 321 320 319 320 319 315 304 305 308 307 305 303 304 313 310 309 309 312 312 312 313 313 312 311 310 308 303
309 308 308 308 308 309 310 311 314 316 318 316 306 317 317 317 316 316 317 319 319 319 317 311 312 316 311 307 310 311 315 315 314 314 314 313 314 312 311 310 309 308 304 302
310 310 309 309 309 310 311 312 315 315 318 315 312 313 315 316 318 319 318 318 318 318 318 314 314 316 315 305 308 312 313 312 313 312 313 312 311 310 310 308 307 303 301 298
311 311 311 310 310 313 315 315 316 315 315 315 305 305 312 315 317 317 317 318 318 317 316 316 314 313 309 309 311 314 315 315 313 313 313 312 312 309 308 305 301 300 297 297
310 311 311 311 311 312 314 315 314 316 315 313 309 306 307 314 312 312 314 314 305 312 308 310 311 305 311 310 312 313 313 313 313 311 311 310 308 305 303 300 297 297 297 296
310 309 310 310 311 312 313 313 313 313 315 314 309 309 306 311 309 307 307 308 305 309 305 309 304 307 311 312 312 312 311 312 312 309 307 306 305 301 298 297 297 297 296 295
310 310 310 311 311 311 311 310 309 309 309 311 311 311 307 308 305 305 308 303 302 308 302 306 301 305 304 308 309 308 310 310 308 308 306 304 299 298 297 297 296 295 294 291
311 311 311 311 312 311 308 305 306 305 307 305 307 307 309 309 308 306 304 304 303 306 304 305 306 304 306 307 308 307 307 306 303 304 301 297 298 299 296 294 293 291 290 290
309 308 307 306 303 306 309 311 306 305 302 303 305 305 307 307 307 304 302 305 306 304 305 306 303 306 303 301 303 303 304 304 299 298 300 297 294 293 293 291 290 290 291 291
305 303 302 302 302 301 300 301 301 300 300 301 302 300 302 302 302 300 305 302 301 305 304 300 302 303 304 301 299 299 298 298 300 299 295 295 294 292 290 290 290 290 291 291
300 301 301 298 297 298 298 299 299 300 300 300 301 301 301 300 300 300 300 301 303 303 303 301 300 301 301 300 297 295 296 298 297 295 294 294 292 291 290 291 290 291 291 292
299 298 298 298 299 299 299 298 299 299 300 300 301 300 302 300 300 301 302 303 302 302 300 301 301 300 299 299 300 298 297 295 295 294 294 293 291 291 291 290 291 291 291 292
298 298 298 299 299 298 298 299 299 299 300 299 299 297 298 298 300 301 301 301 300 301 301 300 299 298 297 296 295 294 294 294 294 293 291 291 291 291 291 291 291 291 291 291

GFSNW_850_thetae_021.txt.gz
Theta_e
313 313 314 313 314 314 314 315 310 318 317 312 314 317 320 320 318 320 320 320 320 318 320 321 320 320 318 317 318 315 315 312 313 317 314 315 316 317 313 310 314 309 309 312
313 314 314 313 314 314 315 316 324 322 317 307 309 315 320 318 318 318 319 320 320 319 320 320 320 319 317 313 315 316 314 313 313 316 316 313 317 315 313 310 307 312 307 310
313 314 314 313 313 314 315 320 314 320 319 315 312 319 319 320 320 320 319 319 319 319 320 318 319 319 317 312 313 315 315 314 312 314 314 313 313 313 314 312 309 311 309 311
313 315 314 313 313 314 318 322 314 316 312 316 318 319 318 320 320 320 319 319 320 319 320 320 319 318 316 313 314 315 312 314 314 312 312 312 313 313 312 313 312 312 311 311
314 316 316 315 313 314 319 323 318 313 310 315 316 317 319 319 319 319 319 318 318 318 317 317 318 315 314 312 315 315 312 311 311 314 312 312 313 310 310 310 310 311 311 313
313 316 317 315 312 314 319 321 323 314 313 312 315 316 319 319 318 319 318 317 315 315 316 316 316 315 315 315 314 315 311 308 305 306 308 310 305 310 313 312 312 311 311 311
312 316 318 315 312 313 317 321 323 320 311 310 312 319 319 318 318 318 317 317 315 315 315 316 316 315 314 315 314 313 309 305 300 303 301 303 308 310 311 311 312 312 311 310
312 316 317 314 312 314 318 323 324 320 307 315 318 318 318 318 318 318 318 317 317 316 311 305 308 305 307 309 312 310 309 302 303 302 304 305 310 312 311 312 310 310 310 309
311 315 317 316 314 314 318 321 322 319 318 316 320 318 317 314 314 314 318 315 315 316 303 302 305 305 308 312 314 310 306 301 302 303 300 300 305 311 312 310 310 311 311 309
310 315 316 317 317 318 320 322 321 319 320 320 319 317 317 317 314 312 318 319 318 314 299 300 304 310 308 311 309 307 305 299 302 294 299 304 304 311 311 311 307 313 313 312
309 312 315 316 316 316 316 321 321 319 320 320 321 320 319 318 317 311 317 314 315 305 305 302 303 301 307 308 309 309 308 308 305 303 301 307 307 310 310 310 310 313 313 313
308 309 312 314 315 314 315 316 318 318 319 319 320 320 320 319 318 318 318 316 314 313 305 300 303 301 308 305 309 308 309 306 307 307 308 307 309 311 312 312 312 313 314 314
307 308 309 311 314 315 314 316 319 317 318 318 319 320 321 321 319 319 318 315 316 315 313 308 305 302 302 307 307 310 309 308 306 308 309 309 310 312 312 312 312 313 314 313
308 308 308 309 311 313 315 315 316 315 314 313 318 317 319 320 321 319 319 318 317 316 314 308 303 301 307 303 305 306 308 309 309 306 308 311 313 313 312 313 313 313 312 311
308 308 308 308 309 312 314 315 315 315 314 313 318 317 316 316 320 321 320 319 319 317 314 304 305 306 304 304 302 304 310 309 306 308 311 312 312 313 313 313 313 312 310 308
308 308 308 308 308 310 311 312 315 316 315 314 307 316 316 316 316 318 320 320 319 319 317 312 312 311 310 307 310 311 313 312 312 311 312 312 313 313 313 312 311 310 308 307
308 308 308 308 308 309 309 310 313 316 317 314 310 311 315 316 318 318 318 318 318 318 316 312 312 314 313 305 308 311 312 313 313 313 312 312 313 313 312 311 310 308 303 301
309 309 309 309 310 311 313 315 314 317 315 314 303 302 313 315 317 317 317 318 317 316 314 312 311 310 306 307 310 314 314 314 314 313 312 312 312 311 310 309 308 301 300 299
310 310 310 310 312 312 313 314 315 315 314 312 306 304 306 313 312 312 313 314 306 310 308 308 310 305 307 310 311 312 312 312 313 313 312 312 311 309 306 302 300 301 298 296
311 311 310 311 311 312 313 313 312 313 314 314 305 307 305 310 309 307 308 307 307 309 305 309 304 307 309 308 308 309 310 311 311 311 308 307 304 302 301 302 299 297 296 296
310 309 310 311 312 312 312 309 307 308 308 310 308 308 307 307 306 304 306 303 302 309 302 307 304 305 303 305 308 308 308 309 309 308 307 304 302 301 298 296 298 298 293 291
310 311 310 311 311 310 304 304 305 304 306 306 307 307 308 308 308 306 305 303 302 306 303 305 306 301 299 300 300 301 303 305 304 303 301 298 296 297 298 296 292 291 290 290
311 310 310 309 305 307 309 309 305 305 301 303 305 304 305 307 307 304 302 306 305 303 305 306 303 301 300 301 301 302 302 303 300 299 299 297 294 293 294 292 290 290 290 290
307 305 303 303 302 301 301 301 301 299 300 302 303 301 303 302 302 300 305 302 301 305 303 299 301 299 298 298 297 297 297 299 300 296 294 293 292 291 290 290 290 290 290 290
301 301 300 297 297 297 297 298 300 299 300 301 301 301 301 300 301 299 299 302 303 302 299 300 298 298 298 296 296 295 296 296 296 295 295 294 293 291 290 290 290 291 291 291
298 298 298 297 298 298 298 298 299 299 300 300 301 300 300 300 299 299 300 301 300 300 299 300 299 299 298 299 298 296 295 295 295 295 294 292 291 291 290 290 290 290 290 290
298 298 299 299 299 298 298 299 299 299 300 299 299 294 296 297 297 300 300 299 299 300 299 299 300 299 297 296 294 293 293 292 291 291 291 291 291 290 290 290 290 290 290 290

GFSNW_850_thetae_024.txt.gz
Theta_e
312 312 313 313 313 313 316 317 309 319 314 312 311 315 319 321 317 319 319 318 317 316 318 319 319 318 317 316 317 315 313 311 314 315 314 314 314 315 311 309 312 308 308 310
312 313 313 313 313 313 316 315 323 321 314 308 308 313 318 318 317 318 319 319 319 318 319 319 318 318 316 313 315 314 312 312 313 314 312 312 316 314 310 308 307 312 307 309
312 313 313 313 313 313 317 317 316 321 319 310 311 316 319 319 319 319 318 318 318 317 319 316 318 318 316 312 313 315 313 311 311 312 312 311 312 314 312 311 308 309 309 310
312 313 314 313 313 313 318 317 315 317 314 316 311 316 317 319 319 319 318 318 318 318 319 319 318 317 315 312 314 314 310 313 312 312 311 312 312 311 312 312 310 311 310 309
313 313 314 313 313 314 321 322 314 312 311 318 315 315 317 317 318 318 319 317 318 317 317 316 317 314 312 309 314 314 310 310 310 314 311 310 312 309 308 309 310 310 310 309
313 314 314 313 313 314 319 322 318 315 309 311 313 314 317 317 317 318 317 316 314 316 316 316 315 313 312 312 313 312 309 307 305 305 306 306 306 308 309 310 309 308 310 309
313 315 315 313 313 314 317 321 320 316 307 309 314 316 318 317 316 317 316 316 313 314 315 315 315 314 314 314 312 310 307 304 299 302 301 303 308 308 309 310 310 308 310 309
313 316 316 314 313 314 317 320 323 319 304 309 314 316 316 317 317 317 317 316 315 315 312 307 310 305 307 308 309 306 306 302 302 302 303 305 308 308 310 311 310 309 309 309
314 317 317 315 313 314 316 321 323 319 312 313 317 316 316 313 313 313 317 314 313 314 301 302 305 308 310 312 314 308 304 300 302 299 301 301 305 308 310 310 310 309 310 308
315 317 317 315 312 314 316 320 321 319 320 319 318 315 316 316 313 311 316 315 316 312 298 299 302 306 306 310 309 308 304 301 301 293 298 303 304 310 310 311 308 309 312 312
316 317 316 313 313 314 319 320 321 319 320 320 320 318 318 316 316 310 316 313 314 305 305 302 302 301 306 308 308 309 308 307 302 301 298 308 306 310 310 309 309 311 312 312
315 317 318 316 315 318 319 320 319 319 320 319 320 319 319 318 317 317 317 316 314 313 304 298 298 301 304 304 308 307 309 306 306 306 307 306 308 310 312 311 310 311 312 312
314 317 317 317 316 318 317 318 318 318 319 317 319 320 320 319 318 318 317 313 316 314 311 304 299 302 301 305 306 309 307 306 304 307 308 307 309 310 311 311 312 311 312 312
309 313 317 317 315 315 315 317 316 315 315 315 317 318 320 320 320 318 317 318 315 314 312 307 300 300 305 300 304 304 307 307 307 305 307 310 311 312 312 312 311 311 312 312
308 309 311 316 316 315 316 316 315 314 313 312 317 316 316 319 321 320 320 319 317 314 313 303 304 304 303 303 302 304 308 307 306 307 310 309 310 311 312 313 313 313 312 311
308 308 309 311 313 314 314 314 316 314 313 314 308 314 316 316 318 320 319 318 318 317 316 312 310 309 308 307 309 310 312 311 311 310 310 311 312 312 313 313 312 312 311 309
308 308 308 309 309 310 309 310 315 316 314 313 309 308 315 317 317 318 318 318 318 317 315 310 308 311 309 304 304 311 313 313 312 312 312 312 312 312 312 312 311 309 308 305
308 308 308 308 308 309 311 313 316 316 313 313 303 302 312 315 316 316 316 317 317 314 311 310 307 307 306 308 308 310 311 312 313 313 312 312 311 311 310 309 308 302 297 300
309 309 308 309 309 310 313 314 314 315 312 310 303 303 304 312 311 311 312 312 308 310 307 307 309 304 308 306 304 306 309 309 310 311 311 310 309 306 301 300 297 299 300 296
310 310 310 311 311 312 313 313 313 314 314 313 302 305 305 308 309 307 308 308 306 310 304 308 304 306 305 300 301 304 307 307 308 308 305 304 300 299 299 300 299 297 297 298
310 310 310 312 313 311 311 309 307 308 308 308 306 306 305 307 306 305 304 304 302 309 305 307 305 306 300 299 302 303 304 305 305 305 303 300 300 299 297 297 296 295 294 292
310 311 311 311 310 310 304 303 305 305 305 305 307 306 307 307 308 304 304 304 302 307 302 306 306 300 298 299 300 301 301 301 299 299 298 298 297 295 294 294 295 294 292 290
310 311 310 309 305 306 308 309 306 305 302 304 305 303 305 306 307 304 302 306 306 302 305 306 302 299 298 298 299 299 299 299 299 299 298 297 296 295 295 294 291 290 290 290
309 306 305 304 303 301 301 302 301 300 301 302 304 302 303 303 302 300 306 301 301 305 303 300 299 297 296 295 295 298 297 297 294 293 293 293 292 291 290 290 290 290 290 290
302 301 300 298 297 297 298 299 300 299 300 302 303 301 302 300 301 299 300 301 301 297 295 300 296 297 296 296 296 297 296 295 295 295 294 294 292 290 290 290 291 291 290 290
298 298 298 297 298 298 298 298 299 300 300 301 301 300 296 298 300 299 301 300 297 298 298 299 298 298 298 297 296 295 295 295 295 293 292 291 291 291 290 290 290 290 290 291
298 298 298 298 299 298 298 299 299 300 300 300 299 297 297 297 297 299 298 295 297 299 299 299 299 298 297 295 294 292 292 292 292 291 291 291 291 291 292 291 291 291 291 291

GFSNW_850_thetae_027.txt.gz
Theta_e
310 310 312 312 312 312 312 318 311 320 316 312 310 314 315 321 317 318 318 316 316 317 317 319 318 319 317 315 316 318 314 315 319 316 314 314 315 316 315 317 314 313 314 317
310 311 312 312 313 313 314 317 322 321 316 312 311 312 317 318 316 317 318 319 317 318 319 320 318 318 314 313 314 316 314 316 318 318 315 314 317 315 312 311 312 315 322 316
309 311 312 312 313 312 316 318 318 321 316 310 312 316 317 318 318 317 317 317 317 318 319 317 319 318 314 312 313 314 313 313 316 318 315 314 314 315 312 314 316 314 316 314
309 310 312 313 313 312 316 317 315 318 315 312 310 313 317 318 319 317 317 318 317 318 319 318 318 317 313 312 314 313 313 316 313 312 312 312 311 312 313 314 313 317 313 312
309 310 312 313 313 312 317 316 314 313 311 313 312 314 317 317 317 318 318 318 317 316 318 318 319 316 313 311 314 314 311 314 311 313 311 311 313 311 311 312 312 312 311 313
308 312 313 313 313 312 317 320 316 314 308 312 311 314 316 316 317 317 316 316 316 316 316 315 313 312 311 311 315 313 311 311 310 312 307 308 311 311 312 311 310 313 314 314
310 312 313 313 313 313 318 319 316 313 308 311 312 314 317 316 316 318 315 315 315 314 314 314 314 313 312 311 309 309 308 306 304 310 305 312 311 310 310 311 311 310 310 310
311 312 313 313 313 313 318 319 317 316 305 309 313 315 316 316 317 316 316 316 314 314 312 312 313 311 311 310 308 306 306 306 306 313 310 308 309 306 310 312 313 311 310 310
312 313 314 313 313 314 318 320 322 318 310 310 316 316 315 315 314 314 314 312 312 311 303 308 313 316 313 312 313 308 305 304 311 305 310 311 309 306 310 310 315 310 310 310
312 315 315 313 313 314 318 319 321 319 315 313 317 316 316 315 313 313 312 312 313 311 305 309 311 312 307 312 311 310 311 307 310 302 312 309 306 307 309 313 314 307 311 311
314 316 315 314 313 314 316 317 320 319 319 318 318 317 316 315 316 315 314 314 314 307 310 311 309 311 309 310 309 311 312 312 311 304 309 314 305 310 314 312 310 309 311 312
316 317 317 315 313 314 315 319 320 319 319 318 318 318 317 317 317 317 315 315 313 312 309 304 303 309 306 307 315 307 312 311 313 310 313 307 308 311 312 311 310 309 311 311
316 317 316 315 313 314 318 319 319 318 319 317 319 319 318 317 317 318 316 313 316 313 312 304 304 308 306 312 310 309 308 306 310 309 310 307 308 309 310 310 310 310 311 311
319 318 314 313 313 317 317 317 318 318 319 315 317 318 319 319 318 317 317 318 316 314 311 306 304 309 304 306 308 309 309 307 308 308 308 309 310 310 310 311 311 311 311 311
318 318 317 316 318 317 316 316 315 316 313 312 316 316 318 319 320 318 318 317 315 313 310 305 308 303 305 302 304 307 307 310 311 313 310 309 309 310 312 312 312 313 312 312
317 317 317 317 317 318 316 315 314 313 313 316 310 314 316 318 319 319 317 316 316 315 315 308 306 306 307 308 309 309 309 309 309 309 310 310 311 312 312 312 312 311 310 309
313 316 316 316 316 315 313 312 315 313 312 312 308 308 314 317 318 318 318 318 317 316 311 305 306 307 307 305 311 307 308 310 311 311 311 312 310 310 311 310 309 308 306 304
310 311 311 312 311 310 314 316 315 314 311 311 304 304 312 314 315 313 315 316 315 312 308 307 305 306 307 310 305 304 306 308 311 309 310 309 309 308 307 304 302 300 299 299
309 309 309 309 309 310 314 315 315 312 311 309 303 306 309 310 309 309 310 312 309 309 307 308 309 305 307 300 299 300 303 304 306 306 307 305 304 300 298 299 299 299 298 297
309 309 309 310 312 313 313 310 311 312 312 312 302 303 305 308 308 306 307 309 306 312 305 308 306 305 298 299 300 301 303 306 307 305 299 299 299 298 298 297 296 295 294 294
310 310 312 312 312 310 311 308 307 308 305 306 305 306 306 307 308 305 304 305 303 310 307 308 306 304 298 299 299 300 300 301 301 301 299 297 297 296 296 296 296 295 294 294
311 311 311 310 310 309 305 304 303 304 306 305 306 306 306 305 307 304 304 304 303 309 303 307 306 299 299 298 298 298 298 298 298 298 298 297 295 294 294 294 292 291 291 290
310 310 309 308 305 302 303 308 307 306 302 304 304 303 305 306 306 303 304 307 307 302 306 306 302 298 298 298 298 298 298 297 295 295 295 294 294 294 292 291 291 290 290 290
310 307 304 300 306 302 302 303 302 300 301 303 305 302 303 303 303 301 307 301 302 306 305 301 299 296 297 298 298 297 294 293 293 294 293 293 292 291 290 290 290 290 290 290
303 302 300 299 296 297 298 299 299 300 301 303 304 302 303 301 302 300 301 302 301 300 299 299 296 296 294 295 296 295 294 294 295 294 294 292 291 291 291 290 290 290 290 291
299 298 298 298 298 298 298 299 299 300 301 302 302 300 301 300 300 300 300 301 299 299 298 297 296 296 297 297 296 295 295 294 293 291 291 291 291 291 291 291 291 291 291 291
298 297 298 299 298 298 298 299 299 300 300 300 299 300 301 298 300 301 300 300 298 298 298 297 297 297 297 295 294 292 292 292 292 292 292 292 292 292 291 291 290 289 288 287

GFSNW_850_thetae_030.txt.gz
Theta_e
304 308 315 312 310 312 312 315 319 316 316 321 320 321 319 321 320 319 320 320 320 320 321 321 319 321 321 318 319 322 319 322 323 321 318 318 320 321 319 319 318 320 320 318
308 311 315 311 310 312 312 315 321 322 320 322 321 318 319 322 320 321 322 321 321 322 323 323 322 322 316 316 319 322 320 322 323 321 319 318 320 320 318 318 319 319 326 317
306 309 314 309 311 312 315 317 323 321 317 316 319 319 319 321 319 320 321 322 322 323 323 322 323 322 317 315 317 313 315 321 322 323 320 319 319 319 318 318 319 317 318 315
303 308 312 310 312 312 317 319 320 321 321 317 319 319 319 321 322 320 321 322 323 323 324 323 323 321 316 316 315 318 319 321 319 317 316 316 317 318 318 318 318 318 315 316
301 307 310 310 312 312 317 318 319 316 318 315 317 316 320 320 321 322 322 323 322 323 324 322 324 322 319 320 318 320 317 321 317 318 316 315 317 317 317 318 318 318 317 317
302 306 310 310 312 312 318 317 316 317 314 317 318 318 318 319 322 320 320 323 323 323 322 320 320 317 316 317 320 320 319 319 318 318 313 314 319 317 317 316 317 317 317 317
306 311 309 311 312 313 319 317 316 318 319 317 316 317 319 321 322 323 319 320 322 317 316 316 316 316 316 315 315 315 317 316 315 319 312 325 315 313 314 316 316 316 315 315
311 310 308 312 312 314 317 318 316 315 319 317 316 317 320 320 319 321 320 318 316 315 316 320 320 321 321 317 313 313 313 315 315 324 316 314 312 311 312 314 314 315 315 315
310 308 310 312 313 314 318 318 316 316 318 318 315 318 320 322 323 321 316 313 313 311 316 321 324 324 320 319 318 312 311 312 318 315 328 329 315 312 312 314 315 312 314 315
307 309 312 312 313 314 319 319 320 317 321 315 318 319 321 320 322 323 316 314 315 312 320 329 326 323 314 318 317 317 318 316 322 317 323 317 313 310 313 315 315 314 314 315
310 312 312 313 313 315 319 318 318 319 319 318 318 317 318 318 321 324 317 318 317 317 325 326 321 325 316 316 315 317 319 321 321 315 323 323 310 313 317 316 314 313 313 315
312 312 314 314 312 314 318 319 320 319 319 319 317 317 317 318 320 320 316 322 319 320 323 320 317 318 312 318 322 313 318 318 319 317 318 313 311 314 314 313 313 313 313 313
313 315 315 314 313 316 318 318 318 319 318 318 320 319 316 316 317 318 319 316 318 316 317 316 318 319 317 319 320 317 314 311 315 314 314 313 312 312 311 311 311 312 312 312
316 316 315 313 313 317 317 317 318 319 319 319 318 318 318 317 317 317 317 318 316 314 313 316 314 323 312 318 316 317 314 312 315 315 314 312 312 311 311 312 313 313 313 312
317 317 315 313 314 317 318 318 318 318 315 318 318 317 318 319 318 318 317 316 316 314 315 315 322 311 314 309 312 315 311 314 316 317 312 312 313 312 312 312 313 312 312 311
316 316 316 314 314 317 317 317 316 314 318 318 321 314 316 316 316 316 315 314 314 316 318 313 311 308 314 315 318 312 311 311 311 313 312 312 312 311 310 309 307 307 306 304
316 314 314 314 317 315 315 316 315 314 313 314 314 316 315 316 316 317 317 317 316 317 312 308 311 312 313 312 320 308 307 308 310 309 311 313 307 305 303 303 302 301 300 299
317 317 317 317 315 314 314 314 313 312 311 311 314 313 315 315 313 312 314 314 315 311 309 308 309 308 310 315 305 305 305 307 308 304 306 304 302 301 300 299 299 299 298 296
313 313 313 313 314 314 314 313 311 310 310 313 308 318 317 310 309 310 311 312 312 309 311 310 312 309 311 302 301 302 302 303 303 303 303 301 299 298 297 298 296 296 295 295
310 309 309 310 313 314 312 311 310 310 311 310 305 306 310 310 309 307 309 309 310 314 311 307 311 303 299 299 299 301 301 302 302 300 297 298 297 297 297 297 298 297 295 295
309 310 312 312 311 310 310 309 311 310 310 306 305 308 309 306 311 310 305 309 308 313 311 312 310 304 299 298 299 299 301 302 302 301 298 298 298 297 296 295 295 295 294 293
311 312 310 310 310 309 309 306 306 309 310 305 307 306 306 305 306 307 306 308 307 313 307 311 309 301 298 298 298 298 298 297 297 298 297 296 296 296 295 292 291 291 291 291
310 310 309 309 306 311 315 311 310 310 303 304 305 305 306 305 306 304 307 312 311 305 308 309 304 299 298 298 298 297 296 296 295 295 293 292 292 291 291 291 291 291 291 290
310 307 308 308 310 306 306 307 305 300 302 304 305 303 305 304 305 304 310 303 305 310 309 306 300 297 298 298 298 296 295 293 293 293 293 292 291 291 291 291 291 290 290 290
303 302 304 302 297 298 298 299 300 300 302 304 305 304 305 303 305 303 305 306 308 307 307 302 297 296 297 297 296 294 293 294 294 294 292 291 291 291 290 290 290 291 291 291
299 298 300 298 299 299 299 299 299 300 302 303 303 303 307 304 305 306 307 308 307 303 301 297 296 296 296 296 295 295 295 294 292 291 291 291 291 291 291 292 291 289 288 286
298 298 298 299 298 298 298 299 299 300 301 302 302 307 304 301 305 305 304 305 303 299 297 296 297 296 296 296 295 294 292 292 292 292 291 291 291 291 290 288 287 286 285 284

GFSNW_850_thetae_033.txt.gz
Theta_e
301 301 303 305 313 315 310 316 319 321 316 318 322 324 322 320 320 322 320 320 320 320 320 320 320 321 321 321 322 322 322 322 323 323 322 321 322 322 322 322 320 321 324 319
301 302 304 305 310 314 311 317 320 323 320 324 327 322 320 320 321 322 321 320 320 320 321 321 319 319 321 320 323 322 323 321 323 323 322 321 320 320 321 320 320 320 325 320
301 303 304 305 309 313 313 318 323 322 322 320 323 323 321 321 320 322 321 319 322 322 321 322 322 322 321 319 321 316 318 321 322 324 322 322 322 320 320 320 321 319 319 319
300 301 304 307 309 311 314 318 321 320 324 325 324 322 320 320 322 322 322 323 323 323 323 324 324 324 321 320 318 318 322 322 321 321 321 320 320 320 320 320 319 320 319 317
300 301 304 307 310 310 314 318 319 319 321 321 322 319 320 320 322 323 323 322 321 322 323 324 323 324 323 322 321 322 321 322 322 322 321 320 320 320 319 319 318 318 318 318
300 301 302 308 311 310 314 319 318 320 322 325 322 323 320 320 323 323 322 322 323 323 324 324 323 322 322 322 324 324 323 322 321 319 317 318 321 320 319 319 318 319 320 319
301 302 303 308 311 310 316 319 319 321 325 325 320 320 320 321 323 323 322 323 324 323 320 320 320 320 319 319 320 321 322 322 321 320 316 323 316 316 316 317 318 317 317 317
301 302 301 307 311 311 316 320 319 319 326 321 319 319 319 319 322 323 323 321 322 320 321 323 322 322 322 319 317 317 318 319 320 325 317 316 315 314 314 315 315 316 315 315
301 301 303 305 309 312 315 322 322 319 325 321 317 318 318 323 325 324 319 319 319 319 324 325 324 323 321 322 321 315 315 317 319 318 325 325 318 315 314 315 316 314 314 314
303 304 305 309 310 312 315 324 318 318 317 316 316 318 319 319 322 324 320 319 318 318 326 328 328 325 320 321 322 319 321 321 324 320 324 320 316 314 314 317 318 315 314 314
304 307 309 310 312 313 314 324 318 320 321 320 320 318 318 321 321 326 321 321 321 321 325 330 326 328 321 321 319 320 321 324 322 323 323 323 314 315 317 318 314 314 315 314
310 309 308 311 312 313 316 323 320 321 322 322 322 320 320 321 322 322 320 322 322 322 324 327 327 323 319 324 322 317 321 321 322 320 320 316 314 314 314 314 314 314 314 314
308 309 311 312 312 314 319 322 319 319 323 321 321 321 317 319 322 322 322 324 322 322 323 323 326 323 323 322 324 321 318 316 318 317 316 315 314 314 313 313 314 314 314 314
310 311 312 313 312 314 318 321 320 321 322 324 322 319 319 317 317 319 323 322 321 321 321 324 317 324 319 324 321 320 318 316 317 317 316 315 314 314 314 314 315 315 315 315
312 312 313 313 313 314 316 318 319 320 321 321 321 319 317 318 318 317 317 319 319 320 322 319 325 319 320 317 318 321 315 317 319 319 315 315 315 315 314 314 313 312 312 312
313 314 314 313 313 315 317 318 318 318 320 321 324 318 318 318 319 319 320 320 321 322 323 320 317 314 320 322 322 316 314 314 313 316 315 315 313 309 308 307 307 306 305 304
316 315 314 313 316 317 319 317 317 317 317 320 320 320 316 316 318 317 319 320 320 322 320 315 318 316 318 317 322 313 311 311 312 311 313 313 308 307 306 302 300 302 301 299
316 314 313 313 316 316 315 316 316 315 315 319 317 317 319 316 319 316 315 319 320 315 313 313 314 314 316 321 310 309 308 310 308 308 308 307 305 303 301 299 298 298 297 297
315 314 313 314 316 315 313 314 314 311 317 318 312 318 318 313 312 312 314 317 315 313 315 314 316 313 315 308 307 306 305 306 306 304 303 302 301 298 297 298 298 298 298 297
316 315 315 315 314 313 313 312 311 316 312 311 310 313 316 314 312 311 312 310 315 315 313 312 315 308 303 301 301 302 302 305 302 302 299 299 297 299 299 300 299 298 298 297
310 311 312 312 313 312 312 313 315 315 314 309 308 313 312 309 314 310 309 314 312 314 314 314 312 308 302 299 300 300 301 303 303 301 299 300 300 298 298 298 297 296 294 292
311 312 311 310 312 311 312 309 309 313 312 306 308 308 308 307 310 309 309 309 310 316 311 315 313 303 299 299 299 301 301 300 300 299 299 298 298 297 296 294 294 291 291 290
310 310 309 312 308 314 314 311 311 309 306 305 306 307 307 307 308 307 309 315 315 309 312 311 306 299 298 299 300 299 299 298 298 297 296 295 293 292 293 291 291 293 290 290
310 309 310 310 309 306 306 308 306 301 303 305 306 305 307 306 308 308 317 305 307 312 312 310 301 298 298 298 298 299 297 295 295 295 294 291 291 291 291 290 290 290 290 291
304 305 307 304 298 298 298 299 300 300 303 305 306 307 308 306 307 307 307 307 310 310 310 304 299 298 298 298 298 296 294 294 296 295 292 291 291 291 291 290 290 291 290 288
299 299 301 298 301 300 299 299 299 301 303 304 307 308 309 306 306 307 312 312 312 306 303 299 298 298 298 298 297 297 297 296 294 293 291 291 291 291 291 291 291 288 287 286
299 299 298 299 299 298 298 298 299 300 302 304 305 311 308 305 307 308 307 308 305 301 299 298 297 297 297 296 296 295 294 294 294 293 292 291 291 291 290 287 286 285 284 283

GFSNW_850_thetae_039.txt.gz
Theta_e
298 301 300 303 303 302 307 312 314 314 311 315 315 318 319 321 321 321 322 320 321 319 319 320 317 318 323 319 320 320 321 321 323 322 321 319 320 322 322 317 319 318 315 318
298 300 301 304 303 302 307 312 314 314 311 313 315 315 318 320 322 321 322 321 321 320 318 322 319 323 322 322 321 321 322 320 318 318 321 321 320 320 319 321 318 320 314 316
299 299 301 303 302 302 308 313 315 317 316 311 314 314 317 320 321 322 321 321 321 320 320 320 320 322 322 321 319 319 322 321 319 317 318 321 321 321 319 318 315 317 316 318
298 299 299 302 302 303 308 313 314 317 319 316 314 315 316 321 322 322 321 321 320 320 320 320 321 322 321 322 319 320 319 318 318 317 319 321 321 320 319 318 318 316 317 318
297 297 299 301 301 302 305 312 314 318 320 318 317 316 318 320 321 322 321 321 320 319 321 321 320 322 322 321 320 319 319 320 320 321 321 319 318 319 318 317 319 318 317 317
295 295 296 300 301 302 306 307 314 317 318 318 318 316 319 321 321 321 320 320 320 321 322 324 322 323 322 321 320 319 320 320 316 320 314 314 312 315 316 318 318 317 316 315
295 295 297 299 301 302 306 307 312 317 317 319 318 317 317 322 320 322 321 320 320 323 323 322 322 321 321 323 322 321 321 320 313 313 311 309 314 314 314 314 313 312 312 311
295 296 298 300 301 302 304 307 309 317 310 318 317 316 319 321 322 321 323 323 323 322 322 320 319 315 313 318 319 318 321 315 315 312 313 315 315 314 315 314 314 313 312 312
298 298 298 300 301 302 305 305 311 313 318 318 318 315 319 321 321 322 323 323 322 322 322 314 319 318 319 320 317 317 317 316 309 313 314 310 314 314 315 314 314 314 314 313
300 299 300 301 302 303 304 305 308 311 319 319 319 316 319 321 322 320 322 321 322 324 309 316 313 315 320 319 317 314 311 311 310 307 308 312 316 314 314 311 313 315 315 314
300 300 301 301 301 302 304 305 308 311 316 320 319 319 320 323 322 319 322 322 319 318 316 315 313 312 314 317 321 316 314 314 309 313 313 315 314 314 313 315 314 314 314 315
300 300 300 300 300 301 304 304 308 310 312 317 323 321 321 321 322 321 321 322 321 323 319 316 312 318 310 315 314 318 317 317 315 315 314 315 314 314 315 315 315 316 316 316
300 300 300 300 300 301 303 305 307 309 311 316 321 321 324 324 323 320 318 319 322 323 323 319 315 315 311 311 313 317 318 318 316 314 316 314 316 316 316 315 315 315 315 315
299 299 300 300 301 302 304 305 309 314 313 314 321 321 322 324 323 321 319 322 324 323 321 316 309 313 319 311 315 316 316 315 315 314 316 315 314 315 315 314 312 314 312 311
300 300 301 301 303 303 305 306 308 312 314 314 320 320 320 322 323 322 324 323 323 323 315 306 313 318 315 313 312 311 316 315 311 312 315 313 310 310 311 311 308 308 309 307
299 300 301 303 304 306 307 309 309 311 312 316 313 320 321 321 321 323 324 324 323 324 321 318 319 319 316 309 307 315 315 316 317 315 315 311 309 309 308 309 306 306 305 304
301 301 303 305 307 309 308 307 315 316 313 318 311 313 320 321 322 322 323 323 324 322 321 320 316 316 317 308 311 314 314 313 313 312 311 308 308 305 306 306 303 302 301 299
304 306 307 309 309 309 309 312 314 319 321 318 311 311 316 319 320 319 321 322 319 316 315 318 313 315 316 309 312 312 312 310 309 311 312 308 305 304 301 300 299 299 298 297
308 309 309 308 307 311 314 313 313 312 316 310 310 312 314 317 314 316 318 318 308 314 308 312 311 307 311 312 311 311 310 309 307 306 305 304 303 300 299 298 298 297 297 297
312 311 313 315 314 313 314 313 313 312 313 311 307 314 312 314 312 311 311 313 310 311 309 313 307 306 306 307 308 308 308 307 307 304 301 301 300 299 299 298 298 297 297 296
313 313 312 313 312 312 312 311 309 313 305 308 310 313 312 313 309 307 310 308 303 306 307 306 308 308 305 304 305 306 306 306 304 304 303 301 300 300 299 297 297 296 293 290
314 312 312 311 311 310 306 305 305 306 308 306 307 309 310 311 311 307 309 307 304 309 308 308 310 303 303 303 303 304 304 304 302 301 300 300 299 298 298 297 292 290 290 290
312 312 310 310 307 308 305 305 308 306 304 306 308 305 308 307 308 307 308 310 308 307 308 308 304 302 302 302 303 303 302 301 300 299 299 298 297 296 295 291 292 291 290 290
310 307 305 305 306 302 301 302 302 301 304 307 307 307 306 306 303 303 308 304 305 309 307 304 301 301 302 301 301 301 300 298 298 298 297 296 295 292 292 293 292 290 290 288
303 302 302 300 298 299 299 300 300 302 305 307 307 305 305 303 305 303 304 307 305 305 303 303 300 301 300 300 299 299 297 297 296 294 291 291 291 290 290 290 290 290 288 287
299 298 300 300 301 300 299 299 300 302 305 307 307 303 305 305 305 307 307 306 305 305 300 300 300 300 299 298 297 296 295 295 294 292 291 291 291 290 290 289 289 287 287 286
298 298 297 298 297 297 297 298 300 302 303 302 303 305 305 303 306 305 303 303 301 299 298 298 299 299 298 297 297 296 296 295 293 291 292 292 291 290 289 288 286 285 285 284

GFSNW_850_thetae_042.txt.gz
Theta_e
299 297 296 301 300 302 302 307 312 312 314 313 312 316 316 317 318 319 321 321 320 317 317 316 315 316 316 319 319 319 319 319 319 321 319 319 318 319 318 314 317 316 313 316
299 296 297 301 301 301 303 308 310 313 314 314 310 313 317 316 318 320 321 321 320 319 317 319 318 320 321 320 318 318 318 319 319 318 318 320 319 317 319 319 314 317 314 315
298 295 296 300 301 302 303 308 312 313 314 314 310 312 315 317 315 317 319 321 321 319 319 318 319 322 321 320 319 320 319 317 317 317 316 317 320 321 319 316 314 315 315 317
296 294 295 298 301 303 303 308 311 312 314 314 311 311 314 316 316 318 320 320 320 321 319 318 321 321 320 320 317 319 316 318 316 316 317 319 319 319 319 317 316 315 315 315
295 294 294 297 301 303 303 308 312 313 314 313 312 312 313 313 314 316 317 321 321 318 318 317 319 320 319 318 319 318 317 316 318 318 317 316 318 317 316 317 317 316 316 316
294 295 297 297 300 304 303 305 310 313 313 314 313 314 313 313 313 316 316 319 319 319 318 319 319 320 320 319 317 317 317 317 313 317 312 313 313 314 315 316 316 316 314 313
293 295 298 299 300 302 304 305 308 313 314 316 315 314 313 313 314 314 319 318 319 319 321 321 321 320 321 320 319 319 316 316 309 311 309 312 315 313 314 312 311 310 310 311
293 297 299 299 300 301 303 305 307 312 310 315 317 316 314 313 314 318 316 320 320 321 320 317 317 314 315 318 316 318 318 312 313 310 311 313 314 312 311 312 314 312 311 312
294 297 296 298 300 301 302 305 307 309 314 314 316 317 315 314 316 317 320 321 322 321 317 312 316 317 317 318 316 314 313 312 312 310 310 310 312 312 313 312 313 313 312 313
295 296 295 296 298 301 301 303 305 307 312 315 317 316 315 315 316 318 321 322 322 322 308 313 312 315 316 316 315 311 309 309 309 304 307 308 311 312 314 310 310 313 314 313
295 295 295 296 297 300 301 302 304 304 307 311 316 316 315 315 317 318 320 320 318 315 314 314 311 308 313 314 315 313 313 311 307 309 307 312 314 313 313 311 313 314 314 314
296 295 295 296 297 298 301 303 304 304 306 310 312 317 319 316 317 320 320 320 319 320 318 312 310 311 305 311 315 316 314 311 311 312 312 312 313 314 314 314 315 315 315 315
299 298 298 298 299 300 302 302 304 304 306 309 314 318 321 322 316 319 320 319 321 322 322 314 312 312 307 310 310 314 315 316 315 313 314 314 314 315 315 315 315 315 315 315
301 300 300 301 301 301 302 303 304 305 309 312 317 321 322 322 318 321 321 320 319 320 324 312 307 311 313 306 312 312 313 313 313 314 313 314 312 312 313 312 313 313 312 312
300 301 301 300 301 300 300 301 303 308 309 311 315 319 322 323 321 321 321 320 318 321 314 306 311 314 313 308 308 309 313 312 310 311 314 312 310 309 310 311 310 309 310 306
300 300 300 300 300 301 301 302 304 306 309 310 312 315 320 322 321 320 320 319 321 321 319 314 317 318 313 306 305 313 315 316 315 313 314 312 308 308 308 310 307 306 306 304
299 300 300 300 300 301 304 305 307 307 308 309 310 312 319 321 322 322 322 323 322 321 319 315 313 316 313 303 309 313 313 315 315 314 312 306 307 305 305 306 305 304 302 300
299 300 301 302 303 304 305 309 311 310 308 310 309 313 315 318 317 318 321 319 317 315 315 316 307 314 308 309 311 311 310 311 310 310 312 310 306 304 303 303 301 299 297 296
300 301 303 304 306 308 307 306 311 309 310 310 306 312 314 315 314 315 316 314 309 313 306 306 310 302 308 309 309 308 310 311 306 308 309 306 304 301 300 299 298 297 296 295
303 303 306 309 307 308 310 308 312 312 311 311 306 311 311 312 310 308 308 311 307 311 308 312 305 305 305 308 310 309 308 309 308 304 301 301 299 299 298 297 296 296 296 295
305 309 311 311 307 307 308 309 306 309 305 307 310 311 310 312 306 306 308 306 303 310 309 308 308 307 305 306 307 308 308 307 307 307 305 303 302 298 297 297 297 296 294 292
311 311 310 312 311 308 305 304 303 305 307 305 306 309 310 311 310 307 307 306 302 310 306 309 309 302 304 305 305 306 305 305 304 304 302 300 299 298 298 297 296 294 291 290
312 311 309 308 304 305 302 304 307 305 303 306 307 305 308 308 308 305 305 304 306 303 308 304 302 302 303 304 304 304 303 303 301 300 299 299 299 298 298 295 291 290 290 289
309 305 303 303 303 301 301 302 302 301 303 306 306 305 305 305 304 302 308 304 304 306 304 303 301 302 303 303 303 302 301 301 300 299 299 298 297 295 293 291 290 290 289 288
302 301 301 300 298 299 299 299 300 302 305 307 305 304 305 302 304 302 304 306 307 304 301 302 300 301 301 301 299 300 300 299 298 297 297 296 295 293 292 291 290 289 288 287
299 297 300 299 300 299 298 299 300 302 305 306 305 302 305 305 304 305 306 303 303 304 300 300 301 299 299 299 298 298 297 297 297 295 293 292 291 292 291 289 288 287 286 286
296 297 296 297 297 297 297 297 299 302 303 302 300 304 304 301 305 304 302 301 300 298 298 299 299 299 298 297 297 296 297 294 292 292 291 290 290 290 289 288 287 286 285 285

GFSNW_850_thetae_045.txt.gz
Theta_e
296 299 301 299 300 301 303 303 306 308 308 313 312 310 314 315 316 317 319 320 321 320 315 315 314 315 315 315 316 316 316 315 316 318 318 318 317 317 315 315 316 314 313 315
298 298 301 299 300 301 304 303 307 309 308 314 313 312 312 315 316 316 318 320 320 318 316 316 315 314 317 320 315 317 317 316 316 317 316 317 319 317 318 315 312 316 313 315
298 300 301 297 298 301 303 304 307 310 311 311 311 312 313 315 315 315 316 318 320 319 318 316 316 318 319 319 318 317 316 316 316 317 316 317 320 319 317 316 313 315 314 315
299 300 300 298 298 300 303 304 307 310 313 312 312 311 312 314 316 315 315 315 318 320 320 317 319 320 320 318 316 317 316 317 315 315 315 317 318 319 317 316 315 315 315 314
300 300 299 297 297 298 302 303 309 310 311 311 312 312 311 313 315 316 315 316 319 316 319 318 318 318 318 318 317 317 315 315 315 317 315 315 318 316 315 315 315 314 314 314
298 299 299 297 296 298 302 302 306 310 311 310 311 311 311 311 313 313 314 316 318 318 318 318 318 318 318 316 316 315 315 314 312 315 312 313 312 313 314 314 314 315 314 312
298 299 298 296 295 297 301 302 306 310 309 312 311 311 311 311 312 312 313 313 313 317 319 319 319 319 318 317 316 315 314 312 308 310 309 312 314 312 312 312 311 309 310 310
299 298 298 295 295 296 300 303 306 309 307 311 313 311 311 311 311 312 312 314 312 313 317 316 317 312 316 315 314 317 315 310 310 312 312 312 314 311 311 311 312 311 309 309
298 297 295 294 294 296 297 302 304 307 310 312 313 312 312 312 311 311 312 314 313 317 315 311 317 319 318 317 315 312 310 309 312 307 311 312 313 311 311 310 311 311 311 310
296 296 295 295 296 297 299 301 304 306 307 311 313 314 313 312 311 312 313 316 320 320 310 311 313 314 316 316 315 311 309 308 312 304 307 310 309 311 312 311 309 312 313 313
294 293 296 297 297 298 299 300 305 305 306 308 312 314 315 314 313 313 316 319 318 310 314 314 312 309 313 312 313 312 314 312 306 305 304 313 310 311 310 309 311 313 313 313
294 294 296 299 299 299 299 300 302 303 305 307 308 312 315 314 314 313 318 318 318 318 315 311 310 310 304 311 314 313 314 312 313 312 311 310 312 312 313 314 313 313 314 313
293 296 297 297 298 299 300 301 302 303 304 305 307 312 314 316 317 315 316 319 320 319 319 313 310 313 307 310 309 313 314 312 312 313 314 313 313 313 313 313 314 314 314 313
295 295 295 295 296 297 299 300 303 303 306 305 308 316 318 319 321 317 317 316 320 322 320 311 308 308 310 306 312 312 312 313 312 312 312 312 312 312 314 314 314 314 313 312
295 295 294 294 295 297 299 300 301 303 304 308 309 311 316 319 319 319 317 320 321 321 313 305 309 312 313 307 308 308 312 311 311 310 313 312 312 311 312 313 313 313 313 309
299 298 297 296 297 298 300 301 301 303 306 304 307 312 316 320 321 320 318 317 320 319 316 310 317 317 314 309 308 312 314 313 314 313 314 313 311 309 309 311 310 309 309 308
299 298 298 299 300 301 301 302 302 301 304 308 306 308 314 319 320 320 319 320 320 319 317 312 313 314 312 303 310 312 313 315 314 314 313 306 307 306 307 308 306 305 303 302
300 300 300 300 299 300 302 306 308 302 304 307 307 308 312 317 317 316 319 317 316 315 313 313 307 312 305 309 310 310 310 311 309 310 312 311 308 306 304 304 303 301 300 299
300 300 300 300 300 300 302 308 306 305 306 308 306 310 312 314 312 316 316 315 310 313 307 307 310 304 311 309 308 308 309 311 307 308 310 307 307 303 302 301 300 300 296 296
300 301 302 303 302 302 302 306 305 305 308 308 305 310 311 312 309 305 308 310 307 312 309 310 306 307 305 307 309 309 308 309 308 304 299 301 300 301 299 299 298 297 296 295
302 302 303 307 307 306 305 305 306 306 304 306 308 309 310 311 309 306 307 306 304 312 311 311 308 310 305 307 308 308 309 309 309 309 307 305 305 301 298 297 296 296 295 295
305 308 306 306 305 306 303 303 302 303 306 304 305 308 310 310 309 305 306 306 304 311 306 309 311 304 305 305 306 306 307 307 307 307 305 302 300 299 298 296 296 295 294 291
309 308 305 305 301 305 306 307 306 306 301 305 306 305 307 307 308 300 300 299 301 302 308 310 303 302 304 304 304 304 304 304 304 302 301 300 299 298 297 297 295 294 290 289
306 303 301 302 301 301 300 302 302 301 301 305 306 303 303 304 302 300 304 304 304 304 302 301 301 302 303 304 304 304 302 302 302 301 300 299 298 297 296 295 294 291 289 288
300 300 301 300 299 299 298 299 300 301 304 306 305 304 304 302 304 302 304 306 307 300 298 300 301 302 302 301 302 302 301 300 300 299 299 298 296 295 292 291 290 289 289 288
298 297 299 298 299 298 298 298 299 301 304 304 304 300 302 304 303 305 305 305 304 303 299 299 300 300 300 301 301 300 299 299 298 298 297 295 294 292 291 290 289 288 287 287
297 296 296 297 297 297 296 296 297 300 303 302 300 304 303 302 303 302 301 299 298 297 298 299 299 300 299 299 298 297 297 297 296 295 293 292 292 292 291 289 286 286 285 285

GFSNW_850_thetae_048.txt.gz
Theta_e
302 300 299 298 301 301 301 303 302 303 304 311 312 313 311 313 317 316 316 319 320 321 315 314 314 315 314 314 313 314 315 313 313 316 316 316 315 316 314 315 316 314 312 315
303 300 299 300 303 301 301 303 304 307 305 309 310 312 312 312 315 315 317 318 318 319 316 315 314 313 314 314 313 314 315 313 313 314 314 316 318 317 315 313 311 315 312 314
303 301 299 299 301 300 301 302 303 308 308 307 309 311 313 311 313 314 315 316 318 319 318 315 315 314 316 318 314 315 315 314 313 315 314 314 318 316 316 315 313 314 313 314
304 301 300 299 300 301 301 302 303 308 308 307 308 309 311 312 312 314 314 315 317 318 318 317 316 318 319 317 316 315 314 315 314 314 314 315 316 317 314 315 314 316 316 313
303 302 300 298 299 300 301 302 305 308 309 306 307 310 311 311 311 314 314 315 314 316 318 318 317 319 317 317 314 315 312 315 313 316 314 315 317 316 315 315 314 313 313 313
303 302 299 298 300 300 301 301 304 308 308 308 307 308 310 310 311 312 314 313 314 315 315 316 316 317 317 315 315 314 313 313 311 315 311 313 312 313 314 313 313 313 314 312
301 301 299 299 300 299 301 301 303 307 307 309 308 307 309 309 311 311 312 314 313 314 314 317 317 316 315 315 316 313 312 311 308 309 309 312 314 312 312 312 311 310 310 309
301 300 299 300 300 299 300 302 302 306 305 308 310 309 308 310 310 311 311 312 313 313 312 316 318 313 316 315 313 314 311 309 310 312 312 312 314 310 311 311 310 309 308 309
301 301 301 300 298 297 298 301 302 304 308 308 310 309 309 309 309 309 311 311 312 311 313 313 318 318 318 317 315 311 310 308 311 306 311 312 312 311 310 309 310 308 309 309
300 300 300 300 298 298 298 299 302 303 306 309 310 310 310 309 309 308 309 311 313 313 304 309 315 317 315 315 316 313 310 308 309 302 307 310 310 310 311 311 311 310 311 311
299 299 300 298 297 297 297 298 300 302 304 307 310 311 311 310 310 308 309 310 312 310 312 313 313 307 312 313 313 314 316 312 307 305 306 316 309 310 310 309 310 312 312 312
298 299 298 298 298 296 296 297 298 302 304 306 309 311 312 310 311 310 313 312 313 313 314 309 306 308 302 311 315 311 316 314 313 313 313 311 310 310 311 312 311 312 313 312
299 298 298 297 297 296 295 296 297 298 304 306 306 309 312 312 313 312 312 314 318 316 316 310 310 311 307 311 311 313 311 310 311 312 312 311 313 313 312 312 313 312 313 313
296 295 294 295 295 295 297 297 298 300 304 304 305 310 311 314 314 315 314 314 317 319 317 310 307 310 310 308 312 312 311 311 311 310 311 311 312 312 312 312 313 313 313 312
294 295 297 299 299 299 297 298 300 302 305 305 306 308 311 312 316 316 318 315 314 318 312 304 310 311 310 307 309 307 311 311 312 313 312 312 312 312 312 313 313 313 313 310
295 297 297 297 298 298 299 299 299 302 303 303 304 307 308 313 317 318 316 318 317 317 317 309 314 316 314 312 312 311 314 314 314 313 314 312 312 312 312 313 313 312 311 310
296 295 295 295 297 298 300 300 300 301 304 305 304 303 311 316 317 318 318 318 318 318 316 313 313 315 313 304 311 312 313 313 313 314 313 307 309 309 310 311 310 309 308 307
295 296 294 295 296 298 300 302 301 302 302 301 305 307 310 315 315 315 317 316 317 315 313 311 308 310 305 310 309 311 312 313 311 310 311 313 310 308 307 308 307 306 304 303
298 297 296 299 298 299 300 302 303 301 301 304 304 308 312 313 312 312 314 313 306 311 304 306 312 305 313 311 309 309 310 311 310 308 310 308 308 306 305 305 303 304 300 300
298 298 299 299 300 301 304 304 303 303 304 305 306 308 309 312 309 306 307 308 308 311 308 309 307 309 307 309 308 309 308 309 308 307 300 302 302 302 301 302 302 303 300 298
301 302 302 302 301 303 300 300 303 304 304 306 307 309 308 310 307 305 306 305 304 311 308 311 310 312 305 307 308 308 309 308 307 309 307 305 307 304 302 300 299 299 297 296
302 304 303 303 305 305 304 303 301 304 307 304 304 307 310 309 309 305 303 305 304 313 306 309 311 305 303 304 306 307 308 308 308 308 308 305 304 302 301 299 298 297 296 295
303 306 304 304 301 306 306 306 305 305 301 304 305 304 307 306 307 301 302 307 307 303 309 311 304 302 303 303 303 303 304 305 306 304 303 302 300 299 299 297 296 295 294 294
302 301 301 301 301 300 300 302 302 300 301 302 305 302 303 303 302 300 307 304 304 305 306 302 301 302 302 303 303 304 303 303 303 302 300 300 299 297 297 296 294 295 292 289
299 300 301 300 299 298 298 298 300 299 301 303 304 303 304 302 303 302 303 306 305 303 302 301 299 301 301 301 302 302 301 301 301 300 300 298 297 296 295 294 294 290 289 290
297 295 297 297 298 297 296 296 297 300 302 303 303 301 304 304 303 304 303 304 302 301 299 298 299 300 300 300 300 300 300 300 299 298 297 297 296 295 293 291 289 290 290 289
296 296 292 294 295 294 294 293 294 300 301 301 301 300 298 299 301 299 297 297 297 296 296 297 298 298 298 298 298 297 297 297 296 296 295 294 293 291 290 290 289 287 285 285

GFSNW_850_thetae_051.txt.gz
Theta_e
303 301 302 303 300 298 302 302 302 302 303 307 309 310 312 312 314 315 317 318 320 321 315 314 315 316 316 313 313 315 317 318 318 319 316 316 317 320 319 323 320 317 318 319
302 302 302 302 300 299 301 301 302 302 302 307 308 309 310 312 314 315 317 318 318 319 318 315 315 314 313 312 314 317 316 315 317 317 316 317 319 317 316 315 315 318 324 321
303 302 302 302 301 299 301 302 303 305 304 306 307 309 310 312 311 313 315 317 317 318 318 316 315 315 314 313 313 314 315 315 318 318 317 317 319 318 317 319 320 321 319 319
302 302 302 302 300 299 300 302 303 305 306 305 305 308 309 311 312 311 313 315 316 318 317 317 315 317 318 316 315 315 317 318 315 314 313 316 318 318 317 318 319 322 320 316
303 302 302 302 300 300 300 301 303 304 307 305 305 307 309 310 311 311 313 315 315 316 318 318 318 318 318 318 315 316 314 318 315 316 314 315 317 316 317 317 316 316 315 316
300 302 302 301 300 300 301 301 302 303 307 306 305 307 308 310 311 310 311 313 315 316 316 315 316 315 315 317 317 316 315 316 316 318 313 314 317 316 317 316 316 318 318 318
301 303 302 301 300 301 301 302 302 304 306 306 305 305 307 309 311 310 311 312 312 313 313 314 315 315 314 315 315 315 315 315 313 316 312 320 317 312 314 316 315 313 313 313
301 303 301 300 300 299 301 302 303 304 304 307 307 306 306 308 310 310 310 312 313 313 312 315 316 316 316 315 314 314 313 312 314 319 318 316 314 313 314 315 317 313 313 311
304 302 301 301 300 299 301 301 302 304 305 306 307 308 306 308 310 309 310 311 312 312 312 312 315 320 319 319 316 311 309 310 319 311 318 321 318 313 310 311 316 312 310 311
303 302 301 301 299 299 300 301 301 303 305 306 307 309 308 307 308 309 309 310 311 311 308 312 314 317 318 321 318 317 314 312 316 312 319 317 312 310 310 318 319 310 310 311
302 301 301 301 299 299 299 301 301 302 303 304 306 308 309 308 308 309 308 311 311 310 311 312 314 314 316 317 315 316 318 317 316 312 317 320 310 309 315 317 311 311 310 310
301 301 300 299 299 300 299 299 300 301 302 304 305 305 308 308 308 308 309 309 310 311 314 311 311 313 310 316 320 312 318 317 319 318 320 315 310 314 312 312 312 311 311 311
300 300 299 299 300 300 299 298 298 299 299 301 302 304 309 309 309 308 309 310 312 311 312 312 313 314 311 313 315 315 312 311 316 316 315 313 311 311 311 311 312 312 311 312
301 300 300 300 300 299 298 298 297 297 299 302 304 304 304 309 310 310 310 312 313 316 313 310 310 313 311 313 315 316 314 313 313 314 313 312 313 313 312 312 312 312 311 312
300 299 299 299 299 299 298 297 296 297 299 301 303 304 307 309 311 312 311 310 313 316 313 308 314 310 311 307 310 312 311 313 315 317 315 316 316 316 315 312 312 312 312 310
299 299 298 298 298 298 295 295 295 296 298 298 302 304 305 307 313 313 313 313 313 314 315 311 313 314 313 313 316 313 314 314 314 314 314 313 313 313 313 312 312 312 311 311
295 295 294 295 296 295 295 299 300 297 299 301 304 305 307 310 312 313 315 315 315 316 315 310 313 314 313 308 315 313 314 315 314 313 314 310 311 310 311 311 311 310 309 308
297 297 298 296 297 296 299 302 300 300 299 301 304 305 308 313 314 314 314 315 315 315 314 310 312 310 307 315 313 316 314 313 312 312 312 312 311 311 308 309 309 308 307 306
296 296 297 298 298 299 299 302 300 300 301 301 302 307 311 312 311 312 311 312 311 311 308 310 312 308 314 313 311 314 315 314 316 312 310 310 309 309 308 308 306 308 305 303
294 295 296 297 297 299 301 303 301 301 302 301 302 307 310 310 307 305 309 307 308 312 310 309 309 314 308 308 310 310 310 309 308 307 303 305 306 306 306 305 305 306 305 302
296 297 299 299 300 301 302 302 302 302 303 303 302 302 306 309 309 306 304 306 305 312 312 314 313 313 306 306 308 309 308 309 308 308 308 307 306 303 302 301 302 302 300 297
300 302 300 301 301 301 301 302 301 303 305 304 305 305 306 308 309 305 303 306 305 313 306 311 313 306 303 303 305 306 306 304 306 307 308 305 304 303 303 301 299 298 298 297
303 303 303 303 301 304 305 304 305 305 301 303 305 304 306 307 305 301 303 307 309 302 308 308 303 301 302 302 303 304 305 306 307 305 302 303 303 301 300 298 296 296 296 295
299 300 300 301 300 300 300 301 302 299 300 302 304 302 303 303 302 301 308 304 304 308 306 303 301 299 300 301 302 304 302 301 303 302 300 299 299 297 297 297 297 296 295 293
297 298 300 299 298 296 296 297 298 298 300 302 301 302 304 302 303 303 305 306 305 303 303 300 298 298 300 300 300 299 299 299 299 298 299 297 297 296 296 295 295 294 293 291
295 291 293 293 294 292 293 292 294 297 301 302 302 302 304 304 303 302 300 303 299 297 296 296 296 297 298 298 298 298 299 299 298 297 296 295 295 295 293 293 292 289 288 288
294 292 288 289 290 290 290 290 291 297 300 299 298 295 296 297 297 295 293 292 291 290 292 294 295 295 295 296 296 295 295 295 294 294 294 293 293 292 291 289 288 289 289 288

GFSNW_850_thetae_054.txt.gz
Theta_e
302 302 303 303 302 302 301 301 303 303 302 304 305 310 312 310 313 316 318 320 321 322 318 317 317 318 317 316 318 319 319 320 321 320 320 320 322 322 322 324 323 323 324 322
301 299 303 303 302 302 301 301 302 303 303 305 304 308 309 311 312 316 317 319 320 321 321 318 317 318 318 316 318 319 320 320 321 320 320 320 321 321 321 322 321 321 327 322
298 298 300 303 302 301 301 300 304 304 304 304 305 307 310 310 310 313 316 317 319 320 320 319 319 317 317 315 317 317 318 319 319 320 319 319 321 320 320 321 323 321 322 320
299 299 299 300 303 301 301 301 305 304 305 306 306 307 308 309 311 312 314 317 318 319 320 318 319 318 319 317 315 317 320 320 320 319 318 318 318 318 320 320 321 321 321 320
299 299 299 299 303 301 300 300 305 305 306 305 307 308 309 309 310 311 314 315 317 318 319 318 320 319 319 320 319 319 319 320 321 320 319 318 318 318 319 320 319 321 321 321
299 300 299 298 302 301 300 301 303 304 305 306 306 308 307 309 310 310 310 314 315 317 317 316 316 316 316 317 320 321 321 320 320 320 319 319 320 320 319 320 321 321 321 321
299 300 300 299 301 300 300 301 303 305 307 307 307 305 306 307 309 311 310 311 315 314 314 315 315 316 316 318 319 319 321 321 321 320 318 327 320 319 320 320 321 321 320 320
299 301 300 300 301 300 301 300 302 304 308 307 307 306 306 306 307 310 310 311 311 312 311 312 312 316 315 316 318 320 321 321 322 327 322 320 318 317 319 320 321 321 320 320
300 301 300 302 301 300 301 301 302 304 307 307 305 307 306 308 309 311 310 310 313 312 315 317 316 312 313 317 320 315 317 318 324 319 323 329 320 320 318 318 322 320 318 318
301 300 300 302 301 300 301 301 301 302 304 303 305 308 307 306 309 312 311 312 313 314 317 319 317 315 316 317 320 320 319 319 324 324 325 323 320 318 315 320 323 319 318 317
300 301 302 302 300 300 300 302 302 303 304 304 305 306 307 306 307 312 310 312 313 315 317 317 318 320 318 320 319 321 321 323 323 323 327 327 316 314 319 321 320 318 317 317
301 302 302 301 300 301 301 301 302 303 304 304 304 305 306 307 308 309 310 310 310 313 314 316 315 321 319 318 320 318 322 321 323 321 323 321 315 319 317 319 319 316 317 316
303 303 302 301 300 300 301 301 301 302 303 303 303 302 305 307 307 309 310 310 309 310 311 315 317 321 319 324 320 318 317 315 320 319 320 319 318 317 316 315 316 315 315 315
303 302 301 301 301 300 300 300 300 301 302 303 302 302 301 305 306 308 310 310 311 313 312 316 317 320 314 320 318 320 318 316 318 320 320 318 317 317 317 315 313 312 313 313
300 300 300 300 300 300 299 299 299 300 301 302 302 303 304 302 306 309 310 312 314 315 316 312 316 317 318 316 317 321 317 319 321 322 319 320 321 319 318 316 314 312 312 311
300 300 300 300 300 299 299 298 297 298 298 301 304 304 304 302 303 308 310 310 312 314 315 318 315 316 316 321 320 317 316 316 317 319 317 316 316 314 315 315 313 312 311 310
300 300 300 300 300 299 299 299 299 297 296 299 304 307 305 304 302 311 312 311 311 312 314 315 317 318 316 319 321 318 317 316 316 314 314 313 313 314 314 312 311 310 309 307
299 299 299 299 299 298 298 299 300 297 298 300 303 307 308 305 309 313 313 313 313 314 314 315 317 316 317 319 317 317 317 314 314 313 313 313 313 312 310 310 308 306 306 305
296 297 297 296 297 297 299 301 301 297 300 302 301 308 311 312 311 312 311 313 312 313 316 316 316 317 319 316 316 317 317 315 317 312 310 312 312 313 310 308 307 305 304 303
296 296 297 298 297 299 300 300 300 300 300 302 305 302 306 309 307 308 311 308 309 311 313 314 317 318 315 312 310 311 312 312 311 308 308 306 306 305 305 304 303 302 300 299
297 299 300 298 299 301 302 303 302 303 304 304 304 303 302 303 311 309 307 312 309 314 312 318 318 317 313 306 308 308 307 308 308 308 308 308 307 306 303 301 300 300 299 298
299 301 299 299 301 302 302 303 302 304 305 306 307 306 303 306 310 311 307 311 308 316 307 311 315 304 301 302 303 305 305 305 304 305 306 307 305 303 300 299 298 297 295 294
300 299 301 303 302 304 303 304 305 306 304 304 305 306 306 306 308 306 307 311 312 303 309 306 304 300 298 300 301 302 302 303 305 304 303 300 298 297 298 297 296 295 294 292
300 300 302 302 302 301 302 302 303 299 300 302 305 303 305 303 307 304 311 305 307 312 309 306 301 297 297 298 299 300 299 300 300 299 299 298 296 295 295 295 295 295 293 293
295 295 298 298 296 293 294 294 297 297 299 301 303 302 303 303 306 305 307 309 306 303 301 299 295 295 295 296 296 296 296 296 296 295 295 294 294 294 292 292 293 294 292 291
291 289 290 290 293 291 291 291 293 294 298 300 300 303 306 303 302 301 300 302 298 296 294 292 294 294 293 294 294 294 294 294 293 293 293 293 293 293 292 292 292 291 290 289
292 291 287 287 288 288 288 288 290 294 297 300 298 297 296 299 297 295 292 292 291 289 290 288 292 292 292 291 291 291 292 291 291 291 291 291 291 291 291 290 288 287 287 287

GFSNW_850_thetae_057.txt.gz
Theta_e
303 304 303 303 304 302 302 302 305 303 303 304 306 308 310 310 313 310 313 316 319 315 319 320 319 319 319 318 319 320 320 321 323 322 321 321 323 323 323 325 326 326 325 326
305 304 304 303 303 303 302 302 303 303 304 306 308 307 309 309 312 312 313 317 318 320 321 321 319 319 319 318 320 320 321 320 322 322 322 322 321 324 324 324 324 327 330 325
304 305 304 303 303 304 302 302 304 304 305 305 308 308 308 308 309 312 312 315 316 318 320 321 321 320 319 318 319 319 320 320 321 323 322 321 321 321 322 323 326 324 323 322
299 302 305 303 303 303 302 301 305 305 305 307 308 308 307 308 309 311 311 313 316 318 320 321 322 320 320 318 317 318 321 320 320 320 320 320 320 321 321 321 321 323 322 322
299 299 301 301 303 303 302 300 305 305 307 305 308 308 308 308 308 310 312 314 315 316 317 319 321 320 320 319 319 319 320 322 320 320 320 319 319 319 319 320 320 320 320 320
300 299 299 300 300 303 303 300 303 305 306 307 308 309 308 307 308 309 309 312 314 316 316 319 319 317 317 317 319 321 321 322 322 323 320 320 323 319 319 319 319 320 320 321
300 300 299 299 299 301 302 301 303 306 308 309 309 308 307 307 308 310 310 310 314 314 315 316 316 317 316 317 318 318 323 322 323 326 322 327 321 320 320 320 320 320 320 320
300 300 300 299 299 299 301 301 304 305 310 308 307 307 308 307 307 310 310 311 311 314 315 314 314 314 314 314 316 317 320 324 325 327 324 321 320 320 321 320 320 320 321 321
300 300 299 299 299 300 300 303 303 305 308 308 306 308 307 308 309 310 310 309 311 313 314 313 313 311 311 311 315 316 318 321 327 325 325 325 321 320 320 321 324 321 320 320
299 301 300 299 300 300 299 303 303 304 306 305 306 308 308 306 308 310 310 310 313 313 316 317 317 313 311 312 313 321 321 323 328 327 325 322 320 320 320 323 324 320 320 319
299 299 301 299 300 299 300 302 303 304 305 305 306 307 307 306 307 311 309 311 313 316 317 317 315 317 315 315 316 320 322 323 326 326 328 328 320 320 322 323 321 321 320 320
300 302 300 300 300 300 301 303 302 304 305 306 306 307 307 307 307 307 309 311 312 313 315 317 317 320 322 316 320 316 322 322 324 323 324 322 320 320 320 320 321 322 321 320
301 300 301 301 301 300 302 303 302 302 304 304 306 306 306 305 308 310 311 312 311 311 312 314 315 317 316 324 320 318 319 319 323 322 322 322 321 320 320 320 321 321 321 320
301 301 300 302 300 300 302 302 303 304 304 306 305 305 305 304 306 306 310 312 310 311 312 315 318 319 312 319 316 317 318 318 319 320 318 319 320 320 320 320 319 319 318 319
300 301 301 300 300 300 301 302 303 304 304 305 305 304 304 304 302 306 306 312 312 311 315 319 317 314 312 314 317 318 314 315 320 319 316 320 320 320 320 321 320 318 317 317
301 301 301 301 301 301 301 300 301 302 302 303 305 305 304 304 304 302 306 309 312 312 312 316 312 310 313 322 320 315 312 313 315 318 318 319 320 319 318 319 320 319 317 316
302 300 300 301 301 301 300 301 302 301 301 302 303 304 306 306 305 304 306 308 311 313 314 314 315 313 314 321 322 314 314 315 315 317 317 317 316 317 316 315 318 317 315 315
300 300 300 300 300 300 301 299 299 301 301 302 304 305 306 305 305 304 308 310 311 311 313 314 316 316 318 318 315 314 314 314 316 318 317 316 315 314 313 312 313 313 313 313
300 300 300 300 299 301 300 301 298 300 302 302 303 306 309 306 307 308 310 310 313 311 316 316 315 317 318 316 315 315 316 317 317 318 317 315 313 313 311 310 309 311 310 310
299 299 300 300 300 298 299 299 299 300 301 302 305 305 306 301 306 310 310 312 313 314 315 314 317 317 313 305 309 313 314 313 315 315 315 314 312 312 310 309 308 308 307 306
300 300 301 300 300 301 302 303 304 303 306 304 305 305 303 301 308 309 309 312 311 314 313 316 317 315 303 299 302 307 310 310 311 312 311 310 312 312 309 307 306 305 303 303
300 301 300 300 301 303 304 305 304 304 305 306 306 305 305 306 305 310 309 311 310 316 307 311 306 303 299 298 299 301 303 306 307 307 307 306 306 307 307 305 302 301 300 299
301 301 302 303 303 303 303 304 304 308 306 305 306 307 307 306 307 307 311 315 312 306 308 307 303 299 297 296 297 299 300 301 300 299 299 300 301 301 301 299 297 296 295 294
300 300 303 304 304 300 299 299 301 299 300 303 307 305 307 305 307 304 312 305 308 313 311 305 299 296 295 295 294 295 295 296 295 295 295 296 296 295 295 294 293 293 290 289
294 295 296 297 294 294 293 294 297 296 298 300 304 303 301 304 307 304 307 311 306 302 301 297 294 295 294 293 293 292 292 292 292 292 291 291 291 291 289 289 289 289 289 290
291 288 290 289 293 292 291 291 294 293 296 299 300 303 306 304 303 302 301 302 298 295 294 292 292 293 292 291 291 291 290 290 290 289 289 289 289 288 288 289 289 289 290 289
292 291 287 287 288 288 288 289 291 292 295 300 299 299 298 300 298 295 293 293 292 291 289 288 288 288 289 289 289 289 289 288 288 287 287 287 287 288 289 288 287 287 287 286